GFSSGP_700_rhum_093.txt.gz
RH
10 10 10 10 11 17 18 17 19 16 16 16 16 16 14 14 15 18 20 32 43 44 42 38 31 24 18 22 31 52 85 77 72 69 70 72 70 57 35 22 20 17 18 14 19 11 9 16 28
10 11 10 10 13 19 13 20 18 18 16 17 16 16 16 15 16 18 26 37 42 40 36 30 23 20 19 20 33 53 89 80 73 68 68 72 77 77 60 40 21 12 11 11 13 9 6 9 12
10 11 10 10 11 10 17 19 19 18 18 19 18 18 16 16 22 29 36 39 39 37 29 26 24 24 22 21 33 58 96 86 79 76 75 77 84 84 81 65 40 15 9 11 9 6 9 16 13
10 11 10 9 7 7 16 22 23 23 22 21 21 20 17 18 21 24 32 33 34 32 34 34 32 28 28 25 30 78 100 88 86 85 79 83 85 84 88 80 52 18 8 11 8 8 13 13 11
12 11 12 8 6 5 7 15 23 23 23 22 21 18 19 20 24 26 30 32 30 28 37 36 29 29 31 30 30 35 60 96 96 96 93 84 89 91 91 88 65 30 13 24 27 20 16 11 10
14 12 16 10 5 5 6 14 24 23 22 22 23 18 20 24 28 28 27 30 28 34 34 32 29 31 35 35 34 34 37 39 44 62 81 98 99 87 98 89 81 58 51 45 43 42 58 14 13
11 14 13 9 5 5 5 17 22 21 22 23 21 21 21 19 27 29 31 30 35 32 31 32 31 32 36 39 39 37 39 41 42 57 74 100 100 92 100 98 97 86 70 55 51 44 66 16 15
12 17 16 12 6 5 6 22 20 21 22 21 22 26 21 23 25 32 30 28 36 32 34 32 28 26 26 28 41 45 45 48 57 54 64 76 86 86 83 95 100 95 96 64 45 59 21 16 16
13 20 17 8 7 5 14 24 23 26 26 24 21 23 23 25 23 24 26 26 33 37 37 37 19 16 17 23 34 46 51 50 53 58 62 66 86 96 95 94 96 99 98 91 42 27 16 16 17
11 14 13 6 6 6 12 24 24 25 26 27 25 21 22 22 21 24 27 28 34 34 31 30 18 15 17 34 35 39 42 50 51 58 72 84 92 94 98 92 96 96 99 97 91 29 18 17 18
10 9 8 6 6 9 8 11 22 26 25 23 24 22 23 24 23 24 26 31 31 27 27 27 19 18 18 39 39 37 46 50 56 59 68 86 91 92 100 100 98 97 100 95 78 38 18 18 19
17 11 10 9 8 10 10 11 14 26 25 24 26 23 24 22 23 24 26 26 27 24 26 30 24 18 19 35 38 38 48 51 52 60 79 98 100 100 98 100 99 96 98 87 64 42 21 20 23
24 20 17 13 10 11 14 12 14 23 26 24 25 25 22 21 21 23 24 25 23 23 26 30 30 19 20 21 38 37 41 42 50 65 80 99 100 99 99 97 97 98 98 85 67 33 21 23 28
26 25 24 19 17 18 22 18 25 22 24 24 24 24 22 21 22 22 22 22 23 25 25 26 31 18 19 19 22 33 37 41 45 65 80 95 90 100 100 100 99 100 97 76 51 33 24 25 28
28 25 30 31 33 19 22 18 22 23 23 24 23 24 23 22 23 22 21 21 22 26 26 25 28 18 20 20 19 21 24 27 48 64 81 91 99 89 95 97 98 98 93 49 45 46 27 28 28
33 28 38 35 32 31 29 20 20 22 26 24 24 24 24 22 23 24 22 20 23 30 29 27 33 25 19 18 20 20 21 23 25 40 78 86 99 94 100 91 96 87 98 64 43 49 33 27 28
43 44 40 42 38 39 33 26 28 28 29 26 24 24 24 23 22 24 23 21 23 32 39 28 34 35 31 17 17 16 26 39 31 27 76 83 94 98 100 99 90 91 84 97 73 61 42 33 30
53 45 42 43 42 41 38 36 34 28 28 27 23 24 24 24 22 24 23 23 21 28 44 32 29 34 34 16 17 17 47 59 58 39 53 76 92 97 99 99 98 98 94 98 89 65 48 41 35
52 55 54 50 48 44 45 41 36 32 26 24 20 21 24 23 22 23 23 23 22 30 42 39 30 36 22 16 14 15 45 60 59 60 43 84 77 92 99 84 91 100 86 100 98 87 58 42 32
48 53 56 56 52 53 53 46 38 34 29 28 23 25 26 23 22 22 23 23 23 28 39 48 34 31 25 17 13 18 31 55 61 67 60 41 71 98 89 95 98 99 99 98 100 99 76 40 32
37 30 29 43 54 54 54 51 42 35 35 31 27 26 29 23 22 24 25 26 27 25 32 45 37 33 28 22 12 18 25 50 60 71 71 60 43 47 76 95 89 86 92 98 100 100 95 54 36
49 46 47 49 50 57 55 58 45 41 38 34 29 29 30 24 25 25 26 27 28 26 30 44 43 34 31 27 12 18 22 33 46 63 72 75 67 47 62 93 99 100 85 98 100 100 95 77 40
72 72 71 71 64 77 75 68 41 54 41 32 31 31 32 29 28 26 26 26 29 28 28 43 44 33 34 32 12 16 19 24 33 57 62 69 72 79 92 92 98 95 98 100 100 100 97 94 53
58 75 87 77 85 88 75 79 60 52 41 32 33 31 34 32 33 31 26 25 26 30 29 42 45 36 35 34 12 16 19 21 27 39 66 77 76 80 96 99 99 99 100 100 100 100 99 99 98
82 84 96 99 97 86 62 84 71 49 44 38 34 33 33 34 30 26 27 25 25 25 29 43 44 37 35 36 12 16 21 22 24 36 56 77 74 77 77 86 85 97 100 100 100 99 100 99 98
80 97 89 88 93 85 61 63 62 48 38 46 38 33 37 33 30 28 28 26 25 23 31 42 41 37 35 38 13 17 23 25 24 35 56 75 74 84 86 84 95 99 100 99 99 100 99 99 100
91 100 98 98 95 99 73 64 57 55 51 44 41 37 36 35 29 26 26 23 24 23 26 35 39 38 33 39 15 16 24 26 26 26 52 58 70 69 95 98 98 95 99 100 99 99 98 99 100
92 98 99 99 97 96 74 66 68 64 59 56 52 44 39 32 28 24 24 22 24 24 33 39 49 47 37 39 22 15 22 26 26 27 32 57 65 72 75 80 85 86 95 100 100 100 100 98 100
80 94 100 98 99 98 91 86 96 94 75 63 55 48 40 31 28 23 22 23 24 32 38 48 53 50 37 37 38 16 18 24 24 26 28 32 56 65 69 66 76 82 86 88 85 82 99 100 99
69 79 98 99 98 96 99 79 87 99 98 78 61 50 49 30 27 24 23 23 30 38 46 51 56 62 52 44 40 36 16 20 22 24 27 29 31 38 55 65 63 73 81 83 83 88 82 92 99

GFSSGP_700_rhum_096.txt.gz
RH
7 8 9 10 9 12 13 16 18 16 18 18 17 17 16 16 16 18 19 30 48 46 40 37 34 26 21 19 19 28 36 77 78 74 68 66 68 61 44 37 32 28 34 41 38 27 10 27 49
7 8 9 10 10 14 10 18 19 19 18 17 16 16 15 17 16 17 20 28 34 40 37 30 23 22 21 19 20 24 42 75 84 78 75 70 74 73 67 54 34 32 19 26 21 23 19 18 35
8 9 10 10 9 9 10 18 18 19 19 19 19 18 18 17 17 18 25 34 40 33 31 31 30 28 27 25 22 30 58 88 88 78 80 80 75 80 79 74 62 44 20 13 19 22 22 19 20
10 11 10 9 7 7 10 20 20 20 20 21 21 21 19 18 18 20 29 32 31 30 27 33 29 28 29 31 29 27 68 96 93 86 87 90 90 90 88 83 74 62 52 16 22 21 16 12 16
13 12 11 8 5 5 6 21 21 22 21 21 22 22 21 20 19 22 27 28 27 29 32 31 31 30 30 33 33 30 35 76 90 98 99 90 97 96 93 91 92 79 66 29 13 20 14 13 25
17 12 13 8 4 5 5 8 12 21 22 21 22 21 21 20 20 22 24 28 31 29 27 30 30 30 31 34 37 35 35 37 47 73 86 100 86 87 98 81 91 92 71 49 53 22 20 22 27
15 14 12 9 5 5 5 9 15 22 23 21 22 22 23 20 22 24 26 30 32 28 27 32 34 32 20 26 40 41 39 39 39 40 52 64 66 86 98 91 89 94 98 88 37 39 29 28 23
17 19 15 12 6 5 6 8 22 24 22 23 23 23 22 21 24 25 26 28 27 28 32 37 31 28 18 16 24 37 44 44 44 49 50 51 57 75 87 86 78 94 98 95 58 54 43 51 23
12 29 21 13 6 6 10 12 19 25 23 23 25 24 23 24 23 24 22 25 27 28 29 34 29 23 18 15 16 21 38 48 58 66 63 64 63 68 76 79 84 88 87 98 84 53 58 50 23
13 14 18 10 7 6 7 9 25 26 27 27 28 29 29 26 25 23 22 25 27 29 25 29 30 25 19 17 18 36 38 45 48 50 55 58 63 78 84 86 98 95 96 97 91 57 65 36 19
20 16 12 9 8 8 9 8 12 23 25 26 26 28 29 30 25 24 22 25 28 30 24 26 28 28 22 18 18 38 40 42 40 49 54 61 69 81 94 100 93 92 98 99 98 67 42 24 19
28 24 19 14 11 10 10 9 8 10 17 25 24 24 24 25 25 25 23 24 27 30 26 27 27 26 26 17 18 33 38 39 46 53 59 68 74 89 96 99 99 99 98 100 99 71 43 24 21
32 29 26 23 20 14 12 11 10 8 10 22 25 26 25 25 24 22 21 22 24 24 24 30 27 23 28 17 18 24 38 38 49 53 60 68 72 91 99 98 100 98 99 100 100 100 44 23 22
38 32 28 25 24 23 21 16 15 9 7 14 25 26 25 25 23 21 22 22 22 22 23 29 27 24 28 18 18 21 22 34 38 42 49 65 77 96 96 100 100 100 100 100 100 94 74 29 23
42 38 33 30 30 28 25 21 18 13 10 12 24 26 24 24 24 23 23 23 23 22 24 29 30 26 28 20 18 20 22 22 23 31 47 59 75 95 97 99 100 100 100 99 97 94 62 30 25
46 43 42 39 30 29 30 24 28 24 20 16 21 26 25 25 24 25 24 23 24 22 22 37 32 29 32 34 22 16 17 20 20 21 26 54 70 94 81 92 99 100 99 100 98 96 52 35 30
49 53 48 44 38 36 34 31 32 28 26 22 22 23 25 24 25 23 22 22 23 23 23 38 32 30 33 38 33 17 17 15 24 38 28 27 66 84 93 94 93 98 98 100 98 92 81 45 30
42 47 51 48 40 38 37 33 37 34 33 31 29 24 23 23 23 24 24 22 22 24 24 26 40 30 34 40 28 18 15 17 41 61 58 36 49 77 99 95 100 93 86 100 68 42 44 46 35
40 45 49 53 55 53 47 43 43 40 35 35 33 30 27 21 21 23 24 24 22 24 24 25 37 36 34 32 21 17 14 20 36 57 60 57 58 86 95 97 100 99 94 88 93 80 75 78 57
44 44 46 48 49 52 54 47 47 45 40 37 35 32 31 28 22 23 24 24 22 23 23 23 34 44 37 29 26 17 13 20 37 50 59 61 88 75 98 84 98 96 99 92 97 89 87 74 55
51 43 38 37 37 37 36 41 42 40 38 36 36 34 33 29 24 26 26 23 22 23 25 25 33 44 39 34 29 18 14 18 27 51 59 66 58 91 91 87 90 97 99 99 99 100 98 88 65
52 50 50 50 56 58 61 62 40 32 27 31 30 33 32 30 28 30 25 22 22 25 26 27 33 45 47 39 31 20 14 18 20 30 56 67 64 59 74 100 97 96 99 98 100 100 100 99 98
72 69 74 77 74 75 82 71 45 43 37 24 21 29 29 31 30 31 24 24 26 26 28 28 32 43 42 40 34 21 15 18 21 23 34 63 69 60 45 59 61 84 99 98 99 100 97 98 100
57 52 53 59 86 94 68 74 57 45 44 41 42 38 29 29 28 36 25 26 27 28 28 31 31 40 44 41 36 22 16 20 22 23 30 40 62 72 64 51 46 56 100 98 100 96 98 99 100
63 70 83 87 94 77 58 76 68 45 54 61 51 47 46 39 31 37 28 27 28 27 26 29 32 36 44 42 37 23 16 22 24 22 30 49 64 74 72 72 77 92 94 95 100 98 100 100 100
73 75 81 90 91 86 70 77 59 78 76 62 51 48 46 45 34 36 33 27 29 29 29 26 28 36 44 41 38 23 16 24 26 22 36 56 70 75 69 70 90 95 100 100 98 100 99 100 100
86 90 75 93 75 99 72 62 59 69 73 66 63 57 47 42 36 34 29 29 26 27 28 25 28 41 44 42 38 26 16 25 28 26 30 52 56 74 74 82 77 92 97 80 83 96 100 100 100
81 87 98 96 97 98 77 72 66 72 71 67 57 50 46 37 35 32 30 27 25 27 25 25 31 46 51 50 39 29 15 24 27 29 25 44 57 65 68 67 69 70 76 86 98 98 98 98 97
81 84 82 94 96 99 94 80 99 99 92 79 83 71 55 39 33 32 30 27 26 25 24 28 40 50 61 52 42 36 16 20 26 27 30 28 41 56 60 66 63 71 81 86 92 99 100 99 100
80 84 89 98 96 99 98 81 91 80 86 88 97 69 73 51 36 31 28 25 28 24 25 40 50 57 67 59 46 37 25 17 21 26 29 32 32 37 46 52 57 63 69 75 86 94 100 100 100

GFSSGP_700_rhum_102.txt.gz
RH
5 6 7 8 16 15 11 10 17 16 16 16 19 23 28 30 31 22 18 17 18 27 32 37 42 36 28 23 21 21 26 32 42 68 72 64 70 77 58 57 45 42 44 44 54 56 39 28 44
5 7 8 14 13 11 9 11 13 17 19 18 18 18 19 25 17 18 18 19 22 34 35 32 23 21 19 16 17 19 22 35 56 78 77 62 56 52 54 48 46 40 39 42 62 59 52 27 25
5 6 14 17 14 10 8 10 14 15 17 18 19 19 29 27 18 19 18 20 20 26 23 26 24 21 21 22 24 24 25 34 61 80 84 74 65 69 68 54 58 54 55 53 66 45 38 31 22
6 8 10 15 11 14 13 14 19 8 18 17 21 24 17 17 19 20 19 20 22 26 26 22 23 21 22 24 26 26 26 28 47 79 88 88 82 83 74 85 81 82 82 78 68 64 31 30 32
6 16 16 16 11 11 14 16 20 18 21 24 19 22 21 18 19 21 21 21 24 26 25 20 22 22 23 20 20 22 24 29 33 56 88 81 93 84 81 81 86 89 82 80 82 81 71 38 34
15 17 16 11 10 13 10 16 23 21 21 22 21 25 21 18 20 22 22 24 24 27 26 25 25 22 24 26 19 19 23 29 36 53 77 89 92 94 77 90 85 86 94 80 82 78 86 71 35
16 22 13 10 10 11 17 10 13 19 20 23 21 22 25 19 21 22 24 24 24 25 27 28 25 22 22 22 20 18 18 23 35 38 59 71 85 93 96 86 100 83 79 82 91 95 93 88 67
26 23 18 13 15 12 16 16 10 10 18 11 12 23 29 24 21 22 25 24 24 24 26 27 27 23 22 21 22 20 18 17 26 39 42 60 75 84 89 81 99 92 77 93 93 96 97 98 83
23 28 20 16 19 15 12 11 19 16 12 13 19 24 24 24 22 22 26 25 23 24 26 26 27 24 24 24 23 23 19 18 19 26 39 51 66 64 70 76 67 72 82 96 96 99 99 99 92
30 33 26 22 22 19 17 19 24 16 18 21 27 26 25 25 23 24 26 26 22 23 26 27 26 26 26 27 24 25 20 18 19 38 40 51 60 63 66 72 73 73 85 94 92 98 100 98 92
39 34 31 32 27 15 15 22 24 22 17 21 25 30 30 27 25 24 28 27 23 24 27 27 26 26 28 28 27 26 19 16 18 38 51 63 64 64 67 66 67 65 78 88 86 92 100 99 85
42 39 39 34 30 23 21 26 26 26 24 11 22 25 27 29 28 27 29 28 25 26 26 27 27 26 28 28 27 26 19 15 16 31 36 47 48 49 53 58 62 70 87 87 88 99 100 99 86
54 46 41 39 32 30 28 27 27 28 30 12 8 13 24 27 29 28 27 28 26 25 25 23 26 28 29 30 29 28 19 17 17 21 31 38 44 50 55 62 70 73 87 90 98 100 97 99 88
49 52 46 45 40 35 34 33 33 34 29 21 14 9 19 22 27 27 28 24 23 22 22 22 25 29 30 34 33 31 20 18 17 18 22 35 46 53 58 60 69 80 88 92 98 100 98 99 94
48 45 43 43 44 38 38 38 38 36 32 29 22 17 10 13 22 26 24 24 23 21 22 23 24 27 32 38 36 33 32 28 20 14 16 21 40 52 55 61 67 89 86 92 99 100 100 97 91
49 49 46 42 47 44 43 33 32 31 28 27 28 26 21 10 8 22 25 24 22 21 22 23 23 25 35 40 37 32 34 34 26 15 15 17 26 46 64 66 77 90 78 85 100 100 100 98 98
50 44 47 45 51 46 43 34 31 33 33 32 33 27 27 22 13 11 25 25 23 21 22 23 24 24 35 42 34 31 32 36 20 16 13 16 24 31 56 70 86 99 83 91 99 99 99 100 97
41 43 44 43 42 48 43 40 38 40 43 41 40 43 42 29 25 16 15 26 24 23 22 23 24 24 31 42 41 35 32 28 19 14 13 23 47 53 44 63 85 100 74 98 99 100 100 100 98
38 34 34 35 44 52 43 42 41 41 45 49 46 34 30 27 27 25 21 19 26 25 22 22 23 24 24 33 39 38 32 29 24 13 16 22 54 62 76 47 73 100 76 94 100 100 100 100 98
37 35 34 35 40 44 39 36 36 37 38 38 24 34 36 36 31 27 28 24 23 25 24 23 24 24 24 25 42 42 36 31 26 13 18 27 48 72 89 78 88 99 86 82 98 98 100 100 99
36 35 36 39 38 38 38 32 28 30 32 28 31 36 37 41 43 41 30 29 26 25 25 23 24 25 24 24 37 43 40 34 28 14 18 24 48 74 90 100 99 98 98 82 96 98 100 100 100
34 40 44 40 37 31 56 23 27 29 32 36 41 44 44 44 46 40 35 34 32 30 25 23 24 24 25 25 31 45 41 38 30 14 18 22 30 54 81 96 100 82 100 99 86 80 88 94 98
40 46 44 42 45 48 43 47 27 31 30 52 72 80 68 37 30 45 41 28 32 31 27 24 23 27 24 25 29 48 45 40 33 15 20 23 29 46 75 87 100 100 99 97 99 92 84 98 94
69 72 75 72 60 54 40 40 25 35 51 63 87 61 48 48 47 47 29 22 26 31 28 26 24 27 24 25 30 47 52 44 33 16 22 24 28 38 65 78 94 98 91 100 100 97 100 86 93
74 67 62 72 79 42 45 45 32 58 71 53 76 89 65 54 43 40 43 24 22 28 27 25 28 24 24 26 31 47 52 44 34 17 24 25 31 47 56 76 74 94 99 90 98 99 100 99 99
74 58 43 40 42 34 63 45 45 88 94 91 93 96 69 60 56 48 42 34 27 29 26 29 26 24 24 27 31 48 54 47 32 18 26 26 42 54 56 69 73 71 86 97 96 99 100 99 99
80 82 75 77 74 61 35 42 58 83 86 95 90 86 69 61 54 50 44 40 31 29 29 25 23 25 27 29 34 49 55 53 29 19 25 25 43 48 58 63 65 72 65 60 60 71 81 84 92
80 84 82 78 69 60 37 43 45 77 84 86 92 95 58 55 66 54 45 40 35 36 31 26 26 27 28 27 36 50 58 59 30 19 26 26 36 51 60 62 64 70 72 77 83 86 92 97 99
93 87 89 82 88 65 50 52 94 83 83 91 95 97 56 55 66 71 48 43 38 38 34 30 29 28 28 29 37 50 62 60 34 19 26 27 27 47 57 61 62 66 67 69 84 99 100 100 100
84 79 80 67 82 78 79 50 90 78 77 90 96 100 59 67 65 70 65 44 39 38 35 32 31 31 31 33 39 53 67 61 38 18 26 26 28 33 49 57 59 60 61 61 71 81 93 94 87

GFSSGP_700_rhum_108.txt.gz
RH
4 4 4 6 22 21 14 11 9 7 10 12 14 14 16 21 27 37 55 43 34 23 15 12 19 27 31 36 38 36 26 22 21 23 23 45 54 60 63 73 60 57 57 61 43 36 40 37 41
5 5 5 18 22 15 12 10 6 7 11 14 14 18 19 22 25 32 35 26 23 16 15 14 17 19 17 14 13 14 15 16 16 20 24 40 55 64 71 67 57 52 62 64 58 54 52 52 33
5 5 37 25 18 18 13 7 7 9 12 14 15 17 18 19 27 33 44 28 15 16 15 15 12 12 13 14 16 17 18 18 18 19 26 38 61 59 63 60 58 53 60 63 69 71 61 54 38
5 6 31 22 16 12 12 11 9 9 15 16 18 19 20 26 36 38 31 19 17 17 16 16 12 12 13 14 15 17 19 19 21 24 27 40 66 59 63 59 70 65 66 71 75 68 73 59 39
6 31 29 19 14 14 12 10 10 11 13 16 18 17 24 28 36 42 42 20 18 18 18 18 17 16 16 16 16 15 16 17 20 23 30 46 56 64 75 73 81 77 83 82 74 70 68 70 62
12 22 28 20 16 12 10 10 9 13 16 17 19 17 21 27 37 52 42 20 19 18 18 20 22 18 17 16 17 18 17 16 18 23 29 38 48 64 78 73 84 78 82 87 81 64 84 78 78
33 36 28 21 16 13 10 9 9 13 17 18 18 18 19 25 32 44 26 20 20 19 19 22 22 20 20 20 18 18 19 18 17 20 27 43 60 69 72 80 80 84 73 87 90 80 84 92 85
44 36 28 22 17 13 11 9 10 12 12 16 18 17 20 24 42 53 34 21 21 20 19 22 23 23 22 22 22 20 19 20 18 18 21 30 38 53 80 88 93 89 82 87 92 73 78 88 88
50 42 34 27 21 18 15 12 11 13 14 12 16 20 25 39 51 48 35 21 21 21 20 21 22 24 25 23 23 24 20 20 20 18 18 23 32 40 54 68 88 77 79 82 85 80 77 88 95
53 47 36 32 25 19 16 14 13 14 16 14 14 18 21 24 36 42 36 25 21 22 21 20 24 22 24 24 24 24 23 21 21 17 22 27 31 43 48 58 74 79 65 75 79 73 71 90 100
47 48 37 34 30 26 21 17 15 16 16 17 17 21 21 23 28 33 38 32 21 22 22 20 23 23 23 24 23 24 26 24 22 17 17 39 50 50 54 56 66 72 71 69 72 75 65 73 93
46 44 40 36 32 30 27 24 20 17 17 18 17 18 21 24 31 33 21 68 52 27 22 21 22 24 22 25 23 24 24 28 25 18 16 25 39 49 66 69 65 68 70 72 73 66 66 77 99
43 42 39 35 34 33 31 29 26 24 22 19 19 19 17 21 25 27 33 41 73 78 47 24 22 22 23 24 21 26 26 30 28 20 17 19 28 40 49 60 61 68 63 72 70 68 72 79 90
38 40 39 36 34 33 33 31 29 28 27 26 24 23 18 19 20 24 25 30 42 64 71 68 27 23 24 23 23 25 25 31 31 24 17 16 17 24 43 45 51 54 54 61 62 68 79 92 94
38 38 40 38 35 36 35 34 32 33 31 30 29 30 28 20 19 20 20 25 30 43 58 68 62 28 25 23 22 25 26 33 30 27 27 27 17 17 38 43 53 50 52 57 62 64 74 88 96
43 41 39 40 39 36 38 38 36 33 33 32 32 32 32 29 29 26 21 22 26 33 43 55 59 48 26 22 21 23 26 31 27 29 29 31 20 15 18 29 32 46 50 58 61 71 84 91 94
45 42 41 40 39 38 35 36 36 34 31 29 29 31 31 32 32 31 28 22 24 31 36 46 53 55 33 22 21 21 26 31 26 27 30 25 17 14 15 16 25 45 44 54 61 68 84 85 91
43 42 40 37 34 36 33 33 31 30 30 28 28 28 30 32 32 33 32 28 22 26 33 40 45 52 39 22 22 22 23 29 33 29 29 23 22 12 13 18 24 40 51 48 62 66 84 91 94
39 36 34 34 33 31 31 30 29 31 34 30 31 30 31 30 30 31 32 32 26 24 29 35 41 47 38 24 22 22 22 24 36 37 33 25 25 13 14 18 24 56 72 65 60 58 81 82 92
34 39 38 42 41 34 38 36 33 34 32 31 30 31 34 34 36 36 36 36 35 25 28 36 43 52 33 27 22 24 24 24 38 42 39 30 28 15 14 17 22 63 79 81 68 66 87 90 99
26 34 50 50 42 34 30 32 33 33 33 31 29 30 31 34 35 37 37 36 36 37 31 35 43 54 42 28 23 24 24 24 30 37 40 36 29 18 15 17 27 60 77 88 65 75 86 92 99
24 32 42 44 45 30 27 26 26 24 23 22 23 24 26 28 30 32 35 37 38 39 40 42 42 44 48 29 24 25 24 23 24 30 45 42 32 22 16 19 21 36 67 83 64 82 84 90 100
23 31 48 47 43 36 30 27 23 22 21 22 27 34 41 46 50 51 48 40 38 41 44 44 50 50 49 31 27 26 25 24 24 25 41 44 35 27 16 20 20 28 63 86 74 82 79 98 98
27 39 53 48 43 41 36 29 21 20 21 28 52 67 72 77 83 88 87 85 66 44 42 45 47 50 51 48 25 27 26 25 24 24 32 43 38 30 16 20 20 30 56 78 98 98 88 87 97
36 44 66 73 79 60 33 28 24 36 40 51 62 66 78 84 76 74 81 79 82 90 80 50 46 58 59 51 35 26 27 26 24 25 29 45 40 32 17 23 22 35 50 74 96 95 93 94 98
38 47 74 54 57 44 36 36 28 45 55 65 69 77 82 84 77 62 51 60 53 63 63 76 54 49 66 58 49 31 29 25 25 27 27 46 41 34 19 23 26 49 54 67 82 99 98 98 92
48 54 59 78 63 62 43 60 75 61 66 75 82 91 100 100 75 47 50 52 62 56 64 78 72 55 68 68 55 38 33 25 27 28 29 48 40 34 20 24 32 44 53 66 78 98 95 100 99
59 58 80 94 95 95 55 70 73 90 76 75 83 97 95 74 63 50 56 52 61 57 64 76 70 58 62 69 68 57 33 28 32 30 33 53 40 33 21 26 38 48 52 65 71 88 97 94 100
77 90 83 70 64 83 54 99 99 95 83 96 96 80 71 66 62 60 59 64 59 72 79 81 79 67 75 85 65 47 33 32 36 30 42 53 41 35 21 26 38 54 56 59 61 67 92 100 99
95 95 84 69 47 59 95 99 99 95 96 73 64 65 71 68 69 66 59 62 97 90 95 82 87 95 70 66 73 56 49 45 58 34 46 53 53 33 22 25 35 55 60 60 61 65 68 68 74

GFSSGP_700_rhum_111.txt.gz
RH
4 4 4 4 7 9 11 4 3 6 8 12 13 13 12 19 23 29 34 49 38 32 32 23 13 12 17 26 30 33 34 30 23 21 22 21 32 49 59 66 54 58 54 53 44 36 36 36 36
4 4 5 9 20 18 16 2 7 10 10 11 10 13 13 20 23 25 34 46 39 31 26 14 14 12 14 19 20 16 17 16 16 16 18 20 34 49 60 62 56 55 53 59 56 47 42 46 38
4 5 5 6 13 16 13 2 10 13 16 13 11 10 13 22 24 23 28 33 30 23 14 15 14 10 10 11 11 13 14 16 16 16 17 22 38 53 61 61 57 53 53 60 63 68 62 57 40
10 5 6 17 14 12 6 2 8 11 15 13 13 12 13 22 28 27 23 24 24 19 15 16 14 12 10 11 12 14 16 17 16 17 20 25 35 55 50 54 60 66 59 63 65 68 79 69 49
21 6 6 9 6 6 8 7 15 14 13 16 14 15 20 20 25 32 31 27 20 15 17 16 16 15 12 12 14 14 14 15 16 17 22 27 32 63 64 66 62 70 71 73 79 70 74 77 72
22 12 14 12 5 6 7 5 10 10 10 17 17 14 22 23 23 23 26 23 25 17 17 17 16 15 13 12 14 16 16 16 16 17 21 24 31 45 70 77 78 72 70 68 78 79 69 75 77
36 22 16 12 9 8 10 12 13 10 10 15 17 16 17 25 28 29 25 23 27 19 19 18 17 17 16 17 16 15 15 16 17 16 18 24 40 56 69 81 79 75 82 66 75 82 79 74 81
40 40 34 34 30 16 9 13 13 12 12 11 17 18 17 31 32 35 36 32 24 20 20 18 18 19 18 19 20 19 16 15 17 17 17 20 28 37 62 75 87 80 84 81 71 72 75 66 95
45 60 47 36 40 26 17 11 13 15 13 13 13 17 18 19 47 49 48 44 31 21 20 19 18 19 18 20 21 21 21 18 17 17 17 18 22 26 35 69 81 82 90 73 74 71 66 70 80
51 51 22 35 31 31 24 14 14 16 14 13 12 16 18 20 44 57 54 45 37 27 21 20 19 19 18 19 21 22 23 22 20 18 16 17 26 27 33 48 72 75 82 77 67 66 62 60 68
45 44 27 32 38 34 30 23 17 22 16 14 13 12 16 19 22 34 42 43 39 33 26 22 20 19 18 19 21 22 23 25 26 23 17 15 23 38 42 44 55 62 81 79 63 58 62 73 75
40 34 34 36 42 41 36 31 26 26 24 16 16 15 18 18 17 18 23 33 34 27 26 23 22 20 18 20 20 22 23 24 27 27 20 16 16 27 37 52 58 72 73 70 68 65 63 72 75
34 31 43 42 44 38 37 36 32 29 26 19 18 18 19 20 22 22 26 26 34 43 21 24 27 22 20 19 20 22 22 24 25 29 25 17 17 17 30 37 62 67 70 70 63 60 65 72 73
30 31 39 43 46 43 39 35 34 30 30 22 17 18 18 19 22 33 29 25 32 42 71 59 53 42 23 20 21 21 22 22 22 28 26 20 17 15 15 28 45 56 60 63 61 59 63 68 67
53 45 37 36 41 42 41 38 34 33 32 30 26 18 17 18 18 20 24 26 25 31 37 58 70 68 56 24 22 21 21 22 22 30 24 24 28 25 15 13 31 34 57 58 55 52 58 63 65
49 50 50 32 38 40 40 39 36 35 34 33 30 28 24 18 17 18 19 23 24 21 30 38 49 60 63 52 29 23 21 21 22 31 25 24 27 27 15 12 14 23 42 69 80 55 57 60 65
51 55 50 45 42 38 39 41 40 37 37 34 32 30 29 27 27 22 19 20 18 19 26 30 32 44 52 56 49 29 22 21 21 30 31 24 27 21 18 12 10 13 23 43 52 55 57 65 70
53 60 55 50 44 42 38 41 41 39 37 36 36 33 32 30 31 31 31 29 27 21 23 25 34 38 39 48 57 43 22 22 21 24 32 27 30 24 23 12 11 14 18 33 52 58 60 64 69
51 61 56 44 42 42 40 38 39 38 36 33 33 30 29 28 30 30 32 33 33 29 22 24 29 35 39 45 52 46 29 22 22 22 32 32 33 27 28 15 12 14 16 38 67 58 59 63 65
32 47 52 46 40 38 39 43 42 36 34 32 31 30 31 29 30 32 32 32 32 32 28 23 24 27 34 38 48 51 40 23 23 23 33 36 38 34 29 24 13 16 18 46 69 76 68 63 77
31 29 30 35 41 45 73 73 49 41 37 31 33 34 30 30 30 31 31 33 35 35 35 26 25 27 38 48 47 52 42 28 23 23 27 32 41 41 33 29 14 16 18 34 64 80 81 64 75
29 26 26 29 30 61 77 57 35 49 44 36 34 33 32 30 34 34 33 35 36 38 38 36 31 26 31 42 42 42 44 38 24 23 24 30 43 43 39 32 16 18 18 24 54 70 78 67 81
25 23 23 28 74 88 69 54 34 28 26 26 32 29 29 31 32 37 36 38 38 39 40 40 47 48 35 36 38 38 37 36 26 25 25 26 32 42 44 36 20 18 20 22 48 68 70 79 78
28 24 49 50 72 89 54 42 35 28 26 28 36 37 37 37 31 30 33 33 33 36 39 45 47 60 66 57 45 42 42 39 29 25 25 25 28 36 45 39 24 18 22 24 41 71 79 83 83
40 39 76 74 95 78 46 44 38 50 50 47 50 60 52 38 42 47 46 43 39 34 35 38 45 48 51 65 63 50 47 45 34 30 28 26 27 29 45 42 27 19 24 31 44 70 92 96 93
41 42 72 77 90 63 41 42 35 39 53 63 66 70 64 72 76 72 68 59 51 51 40 34 36 44 46 47 57 60 59 54 46 35 29 26 29 33 50 44 29 20 24 43 48 69 95 100 93
38 41 46 71 68 77 40 42 48 55 55 70 79 73 75 86 72 74 64 44 44 47 48 44 37 32 36 44 48 62 60 59 53 42 30 27 32 38 52 47 29 20 25 45 48 60 75 100 96
34 40 54 68 92 95 55 79 92 94 100 95 83 98 93 91 82 69 65 47 50 44 52 56 71 53 52 52 54 59 67 69 61 55 32 27 32 39 51 51 28 22 28 48 48 61 78 88 100
56 51 59 85 89 97 92 99 99 98 98 99 93 77 66 60 53 51 49 55 50 52 57 62 64 72 79 80 66 69 72 70 63 63 40 30 30 39 59 53 28 23 29 55 56 64 76 91 100
71 75 69 95 99 94 99 98 98 99 97 90 70 59 60 57 63 62 63 58 52 55 74 75 98 90 70 76 73 83 74 65 64 71 47 34 36 42 61 55 26 23 27 52 57 59 66 77 100

GFSSGP_700_rhum_114.txt.gz
RH
3 4 4 4 4 4 6 2 1 2 12 12 15 14 11 11 12 23 24 33 39 34 32 31 18 14 12 12 22 30 32 33 32 28 24 22 21 41 56 57 54 53 53 47 42 39 42 40 47
3 3 4 4 5 6 5 2 1 4 17 15 14 14 12 11 12 19 25 31 31 26 33 27 14 14 12 10 19 23 29 31 28 22 20 22 20 30 55 60 56 53 57 56 55 45 43 39 38
8 4 4 5 5 4 4 2 1 4 15 20 17 14 14 12 12 14 20 25 39 33 29 21 13 14 11 8 9 11 12 14 15 16 16 19 21 32 50 59 59 54 54 56 61 61 56 55 46
19 9 6 7 3 3 2 2 2 3 12 19 19 15 13 12 16 17 20 24 28 25 21 16 14 14 12 9 8 11 14 15 16 16 16 19 22 30 55 65 60 57 54 54 62 64 73 64 53
31 17 8 6 5 4 3 2 3 10 12 13 16 16 14 13 16 19 21 24 23 22 17 13 15 14 14 12 9 10 12 14 14 14 15 18 22 29 57 55 61 60 65 61 64 66 68 74 72
38 31 18 16 15 10 7 4 3 7 11 11 16 17 17 19 20 20 20 21 22 24 22 14 16 15 14 13 11 10 12 13 14 14 15 16 22 32 62 64 66 63 66 69 71 75 73 67 65
39 36 29 25 23 21 17 8 6 10 13 13 14 17 17 21 24 24 24 24 23 22 22 16 17 16 15 15 14 14 13 12 14 15 15 16 23 32 45 72 74 78 71 66 74 71 80 78 74
38 40 35 29 27 23 19 12 9 15 14 13 12 18 16 14 17 21 27 30 30 28 23 17 18 17 16 16 17 17 16 14 13 15 16 17 20 30 47 68 78 79 77 77 70 70 81 82 70
38 42 33 31 31 23 21 19 9 13 16 15 18 18 17 17 17 26 21 30 38 33 26 19 19 18 18 18 18 19 19 17 16 15 16 17 19 23 27 44 71 83 81 79 76 70 66 71 75
42 39 20 32 36 28 27 24 17 15 17 18 14 14 15 17 22 29 31 40 43 40 29 23 21 20 19 18 20 19 20 19 19 20 17 17 19 22 23 30 39 72 75 81 83 82 58 62 73
38 28 15 28 34 37 31 26 26 21 17 21 17 15 13 15 18 27 41 41 37 44 35 24 23 22 20 19 20 21 20 21 20 25 24 17 16 24 36 39 36 43 47 60 74 75 63 65 74
22 14 30 22 33 34 31 30 26 28 18 26 18 15 14 15 20 21 24 22 19 26 38 38 26 23 21 20 20 22 21 21 21 23 27 23 16 16 22 32 43 46 48 52 67 78 71 67 71
18 9 17 22 36 33 39 35 34 30 28 28 23 22 17 17 16 16 17 18 19 22 20 21 30 26 23 21 21 21 22 21 21 22 27 27 17 17 16 19 31 42 57 63 66 67 70 69 73
18 20 20 20 27 34 44 41 41 29 36 35 28 30 24 22 22 20 20 20 22 27 23 24 35 37 32 24 22 22 22 22 21 22 24 28 21 17 15 14 16 32 46 54 62 72 71 73 70
14 44 25 22 16 29 38 42 46 30 38 36 33 30 31 22 21 22 21 26 30 26 26 26 23 58 53 47 28 23 23 23 22 22 22 29 22 24 23 20 14 16 28 34 43 53 60 58 54
28 44 48 2 30 35 38 40 33 32 37 38 34 32 30 28 23 21 22 31 30 28 29 27 30 35 43 58 60 45 26 24 23 21 22 26 25 24 26 19 13 12 15 24 36 44 53 59 58
33 34 36 33 45 51 49 38 29 38 40 39 36 34 31 25 28 23 20 21 24 26 26 25 27 29 35 39 51 59 48 37 24 22 22 23 28 25 27 18 17 10 10 11 17 27 42 55 63
37 36 36 45 38 50 51 45 36 40 41 39 38 36 33 32 26 22 22 22 20 20 22 24 23 25 28 35 39 49 52 52 32 22 22 24 30 29 30 24 23 12 10 12 16 18 35 46 62
50 47 40 47 42 53 48 48 43 40 40 40 40 37 33 31 31 29 28 28 26 23 23 24 20 22 24 26 44 43 42 48 45 25 23 24 33 32 33 29 27 22 12 15 18 24 47 56 58
75 66 52 31 37 56 50 45 50 48 42 39 41 39 35 34 34 31 29 30 30 33 33 29 24 23 23 26 35 43 49 59 52 41 24 24 32 35 37 37 31 29 14 15 18 27 52 67 67
79 69 53 34 22 39 34 52 49 45 44 40 40 40 38 32 31 31 30 32 33 34 34 34 34 31 25 24 34 46 50 64 60 45 28 24 25 33 38 41 40 33 20 16 19 25 47 66 81
94 62 54 33 33 34 79 86 65 52 47 40 41 35 35 32 32 34 34 34 33 34 34 33 33 33 33 29 26 32 40 47 49 50 40 26 25 28 37 41 45 38 29 16 20 23 32 59 82
77 76 65 32 28 38 49 85 54 43 40 47 44 42 35 34 32 32 32 33 34 34 34 33 33 36 37 39 38 26 36 57 51 46 40 37 28 26 28 39 43 42 35 18 20 24 29 52 77
49 60 54 47 46 72 62 69 48 51 38 32 45 47 41 39 33 33 35 35 34 34 35 37 38 38 44 44 57 77 66 55 44 44 40 33 28 26 26 31 38 47 39 20 23 26 32 52 83
53 65 76 67 81 75 55 83 52 56 84 43 43 52 53 50 42 38 34 36 36 35 35 37 40 45 42 41 45 68 66 61 59 54 46 41 30 29 28 30 36 50 43 22 24 27 39 58 84
46 51 54 71 87 73 46 54 48 81 97 100 80 94 86 71 61 50 45 43 41 39 38 37 38 39 45 51 48 48 49 52 62 62 56 48 34 33 35 32 40 54 47 23 26 32 49 64 87
49 56 42 42 55 73 46 64 78 100 98 93 93 84 78 76 70 70 64 55 40 39 36 34 34 32 34 40 45 48 48 45 56 58 65 56 41 35 35 33 44 58 52 24 26 40 53 64 80
68 44 55 55 84 94 71 91 99 99 99 99 99 96 97 90 84 73 61 52 54 49 35 34 37 38 35 35 42 49 49 46 52 59 70 52 55 37 37 38 45 60 52 24 26 45 51 58 74
57 54 49 51 66 99 95 97 99 98 98 92 98 99 98 84 77 61 67 68 57 46 33 32 32 44 43 42 56 74 71 58 58 61 63 53 62 50 40 37 48 63 52 24 27 49 56 63 77
67 50 45 52 84 80 96 97 98 97 98 95 98 97 90 95 59 52 50 59 62 46 42 40 44 53 57 51 55 60 76 65 65 73 66 60 60 56 41 40 50 65 50 24 27 52 62 67 78

GFSSGP_700_rhum_117.txt.gz
RH
3 3 3 4 3 4 4 3 1 1 2 14 11 16 23 18 13 29 19 21 28 31 34 32 29 20 12 13 16 20 30 31 30 32 30 26 23 30 54 60 55 50 50 45 44 39 41 57 61
10 4 3 4 4 4 4 2 1 1 6 17 11 17 21 22 24 22 16 22 30 31 28 33 22 15 12 12 11 19 23 22 28 30 28 24 23 25 44 58 60 56 55 54 49 44 41 40 38
20 11 4 5 5 4 3 2 2 2 3 19 17 17 19 18 16 16 20 26 29 28 33 30 24 17 12 12 9 11 12 14 17 20 20 20 21 26 36 54 63 58 58 58 57 56 51 45 43
30 19 9 8 6 4 4 3 3 4 3 16 19 18 20 18 15 18 18 21 23 27 26 20 16 14 12 13 10 8 9 11 12 14 16 18 19 21 33 52 56 62 58 57 57 58 62 56 54
33 29 20 15 15 12 8 6 4 3 8 15 13 16 19 22 16 15 16 19 22 22 21 20 12 14 13 14 12 10 9 9 12 12 15 17 19 22 31 47 61 61 61 59 58 62 64 68 69
35 33 25 24 20 19 19 16 8 4 5 12 12 17 18 20 17 16 19 21 23 23 22 21 21 14 14 13 13 11 10 10 11 11 13 16 19 22 27 46 52 55 61 64 68 71 70 68 68
36 35 31 27 26 25 23 20 16 7 3 10 14 14 18 22 17 19 25 25 24 24 22 19 18 15 15 14 14 14 13 13 12 11 11 15 17 22 29 43 57 60 62 66 68 74 78 79 77
36 39 36 33 32 28 24 20 20 16 6 11 15 14 13 21 22 18 22 25 26 26 26 23 19 16 16 16 16 16 16 15 14 12 12 14 16 22 31 40 56 64 73 70 66 77 78 86 80
35 41 33 36 36 30 32 24 22 20 12 13 16 18 18 14 19 20 22 24 21 26 27 21 20 18 18 18 17 18 18 18 16 16 14 13 15 18 26 37 51 69 77 75 75 77 75 71 72
31 28 27 27 29 28 32 30 27 26 24 13 16 18 18 19 18 19 22 19 17 22 33 28 24 23 21 19 18 18 19 20 19 18 20 17 15 16 20 24 30 47 67 76 79 82 73 67 69
12 6 13 22 30 29 30 38 33 30 22 23 16 19 19 19 19 18 18 20 17 23 38 38 30 27 26 21 19 19 20 21 21 20 22 24 18 15 20 29 32 36 38 52 62 74 76 74 69
7 4 12 11 12 24 35 41 44 36 23 27 22 29 29 41 22 20 21 23 27 26 34 44 38 28 31 23 20 20 20 21 22 22 22 25 26 16 16 18 32 42 43 44 46 54 73 80 71
3 6 5 12 16 17 33 31 41 26 24 34 31 29 28 59 50 35 27 31 35 25 23 27 34 38 33 25 21 21 20 22 24 23 22 23 27 20 16 16 18 31 43 51 51 55 61 75 73
7 6 7 6 4 21 22 16 27 3 28 33 36 30 30 40 51 47 53 29 35 24 20 22 25 36 35 28 25 22 22 23 24 25 24 22 26 21 17 15 15 16 27 45 59 66 67 66 68
9 8 4 2 8 14 45 29 12 3 20 30 34 31 32 36 50 59 50 48 28 22 22 23 23 26 36 39 40 28 25 24 24 25 26 24 24 25 20 22 23 20 15 25 39 50 60 64 67
28 25 28 6 13 17 36 31 2 15 24 27 34 33 31 35 34 34 31 31 31 30 30 29 25 29 43 51 57 59 47 30 25 26 27 26 24 27 22 22 24 18 14 13 18 23 31 49 56
42 42 40 18 14 22 40 50 21 28 43 27 31 39 35 35 34 32 28 25 31 38 36 31 27 31 33 33 47 50 56 59 51 36 29 28 26 26 26 24 25 21 16 11 11 12 16 28 35
57 48 37 36 13 25 42 49 42 41 51 41 33 35 38 39 35 35 32 29 26 27 34 31 29 27 26 27 32 44 49 52 58 50 51 40 26 25 26 27 29 25 24 13 11 13 16 19 32
59 76 84 71 28 21 35 55 33 18 42 46 35 36 42 42 40 37 36 33 31 29 25 23 23 22 23 25 26 28 32 57 60 47 51 47 26 27 26 28 32 31 29 22 13 15 17 18 28
45 56 72 66 30 60 45 20 40 49 45 46 46 40 39 43 38 38 37 36 35 30 28 29 28 30 25 23 22 22 28 33 49 58 51 54 38 27 26 30 34 37 35 32 18 15 18 20 33
68 48 43 76 63 70 47 35 15 32 50 41 43 45 41 39 41 47 46 42 40 35 28 31 32 33 31 28 25 23 26 29 58 68 58 53 48 31 26 30 36 38 41 36 27 17 20 23 28
77 54 50 66 86 61 46 55 44 38 39 43 45 45 46 46 41 49 59 47 40 32 30 30 31 34 32 31 33 34 25 25 33 46 43 60 48 46 29 29 34 38 42 42 38 20 21 23 24
56 45 49 86 84 67 53 46 47 37 54 46 40 45 43 46 41 43 44 41 33 31 30 30 32 33 34 34 35 38 40 43 47 43 53 56 59 48 42 37 30 36 38 45 44 26 21 26 28
63 45 59 60 64 67 45 46 54 80 87 66 49 58 46 46 42 39 38 38 36 35 32 33 33 32 34 35 35 38 38 39 46 66 84 83 68 50 44 35 35 31 34 40 48 35 21 26 30
71 61 82 74 80 81 47 61 61 98 97 98 86 82 67 57 62 43 41 38 39 38 37 36 36 35 35 36 40 42 45 48 48 65 64 99 57 56 53 48 38 30 33 40 52 45 24 26 32
46 43 76 70 74 67 60 88 98 100 98 100 100 100 95 89 86 73 64 48 42 39 37 37 37 36 34 37 38 42 43 44 48 61 81 66 60 55 52 50 41 34 36 39 54 54 26 25 37
52 55 50 63 55 79 80 99 97 99 98 99 100 100 92 94 93 81 68 64 58 49 43 40 38 37 37 42 42 40 41 44 46 50 60 65 61 50 50 52 39 34 40 37 56 58 28 25 44
53 67 65 65 71 83 92 96 98 97 97 98 99 99 97 98 95 84 70 60 52 47 42 40 38 38 37 36 36 36 41 44 43 49 59 61 59 60 56 53 46 38 39 36 54 57 28 25 49
68 66 70 55 59 96 96 97 96 96 96 98 99 99 99 98 90 84 79 74 64 52 44 37 36 36 32 33 35 41 45 47 49 46 50 56 59 64 72 60 56 42 41 40 55 59 27 25 52
88 70 64 50 60 74 84 98 97 96 97 98 100 99 98 97 98 79 71 65 62 59 48 38 37 31 36 43 39 47 58 69 93 73 67 67 64 68 75 76 70 55 42 42 61 60 26 27 51

GFSSGP_700_rhum_123.txt.gz
RH
21 14 10 6 4 4 5 2 2 2 3 9 15 8 14 19 25 16 18 12 13 24 28 36 34 25 18 17 14 11 11 10 17 22 20 20 18 19 16 17 41 48 46 46 44 43 40 41 57
24 24 20 12 8 5 4 3 3 3 3 3 3 4 16 19 26 26 20 21 17 21 30 40 31 23 22 16 13 11 11 11 13 18 17 17 17 17 16 16 28 53 50 50 49 45 42 41 45
28 28 27 17 10 13 10 8 5 4 3 3 2 4 15 18 26 23 25 20 26 23 32 36 27 23 14 12 11 11 11 15 13 13 17 16 15 15 16 17 22 49 57 54 52 50 51 49 43
31 31 31 24 17 16 14 11 12 13 10 7 4 6 14 16 19 21 20 24 29 31 38 29 22 14 12 12 12 12 11 12 13 12 14 15 14 14 15 18 21 38 57 57 55 52 52 50 52
34 33 34 28 26 22 21 20 20 19 18 15 10 6 10 16 18 26 28 32 33 40 32 23 19 14 14 12 12 12 11 10 12 12 13 14 13 13 14 17 23 31 47 58 56 54 53 56 58
34 34 36 32 30 28 26 24 22 21 22 22 19 8 8 14 19 21 36 36 38 30 25 24 21 20 16 13 12 12 11 11 11 12 13 13 13 12 14 17 22 30 50 54 56 60 59 61 64
28 37 37 36 34 33 30 27 26 27 26 24 25 21 10 10 16 20 44 39 32 28 27 22 21 18 16 15 13 13 13 12 12 13 13 13 14 14 15 18 23 30 44 51 57 61 63 68 68
22 34 41 39 37 34 26 24 26 27 25 25 25 26 17 9 14 24 36 41 29 30 25 23 22 19 16 16 14 14 15 15 14 14 13 13 14 15 16 18 25 33 42 53 59 65 70 66 68
8 27 41 35 28 27 30 20 18 20 24 27 31 29 26 14 13 17 35 39 29 32 26 25 22 21 18 16 16 15 16 17 17 16 15 15 15 15 16 18 24 31 40 46 62 69 75 69 69
2 5 7 8 11 18 20 24 10 11 17 19 28 30 30 24 14 18 23 38 31 33 28 25 24 22 20 17 17 17 17 18 18 18 17 19 19 17 16 17 21 27 31 38 54 65 73 79 76
2 3 2 7 14 18 19 20 25 8 6 9 12 25 35 32 26 17 21 40 38 35 31 29 28 27 23 20 20 18 18 18 19 19 19 20 22 23 19 16 18 24 29 32 41 44 65 80 83
2 2 3 3 3 4 5 4 4 8 6 5 4 9 21 30 30 20 20 24 43 37 32 31 32 30 30 22 22 22 18 19 20 20 20 21 22 24 24 17 16 20 26 32 37 40 52 71 78
3 3 3 3 4 4 4 3 4 3 4 4 4 4 6 14 25 29 23 28 44 44 34 32 33 29 32 24 22 23 25 20 22 22 21 21 22 23 25 19 16 17 20 24 34 42 47 52 60
4 4 4 4 4 5 4 4 4 5 8 5 5 4 4 4 9 28 27 34 47 52 36 36 34 34 28 29 31 24 23 22 24 24 24 23 23 23 25 23 18 17 17 18 23 38 49 53 59
8 7 7 8 10 10 13 6 8 8 10 9 6 2 4 5 5 10 31 31 55 62 45 37 38 35 34 33 32 25 25 25 25 27 28 27 26 26 25 26 22 21 23 23 20 20 30 44 55
13 10 12 16 22 22 22 6 12 12 11 9 8 5 4 2 4 6 20 33 49 66 60 43 42 43 34 51 46 41 29 30 29 29 30 30 30 30 28 26 27 24 24 22 16 16 17 21 31
17 25 17 25 23 28 38 16 24 22 19 14 12 10 6 3 2 2 6 31 38 54 67 55 48 53 56 57 46 60 57 55 46 37 35 34 33 32 31 30 29 30 26 26 22 19 13 14 17
36 40 43 50 30 44 52 44 33 38 16 14 15 13 8 5 2 4 4 11 35 43 56 59 59 62 66 47 50 68 63 62 52 50 49 51 38 32 33 34 33 32 30 28 26 26 18 13 13
42 53 54 26 20 55 48 59 49 14 13 16 20 23 15 6 6 4 5 10 31 38 52 60 66 72 75 57 62 61 50 46 50 46 57 58 61 56 54 58 51 34 31 31 32 30 28 23 15
33 56 42 29 19 54 54 54 19 13 22 47 52 34 34 14 11 30 12 12 24 38 44 61 64 73 76 58 61 70 66 54 48 46 43 35 46 56 54 56 63 39 31 31 34 35 34 34 25
38 53 41 51 28 25 64 50 58 37 42 46 39 37 29 12 13 37 52 24 36 38 36 46 53 66 69 64 61 57 39 34 32 34 35 37 36 42 57 67 66 48 35 32 35 38 40 40 37
70 57 56 48 73 66 66 52 58 70 69 90 75 49 51 20 22 33 47 51 42 40 35 31 32 32 34 37 32 30 29 28 25 24 24 27 33 40 58 75 74 58 51 40 39 41 42 44 43
41 54 55 53 80 78 44 70 58 81 77 78 97 99 80 72 42 41 51 54 54 44 42 38 37 36 36 35 34 32 31 30 30 30 30 26 33 43 52 65 80 59 65 63 44 37 42 42 47
57 60 56 53 83 78 70 85 80 97 98 94 96 97 99 99 70 44 57 50 56 50 48 41 39 39 38 38 38 40 34 31 33 34 32 28 29 37 40 62 71 66 91 85 67 51 49 47 51
54 71 58 63 88 59 59 66 97 98 96 96 96 97 99 99 100 76 67 55 54 51 51 46 41 40 42 40 39 43 43 39 35 34 35 33 32 31 34 43 68 70 80 84 67 56 59 56 57
65 59 52 54 47 45 53 92 97 96 96 96 96 96 97 99 100 100 89 65 54 53 48 44 44 45 42 41 45 42 42 46 39 40 40 40 43 42 45 52 80 67 60 73 79 61 54 53 61
79 62 55 64 61 66 83 96 97 95 96 96 96 96 97 98 99 99 100 93 73 64 53 46 53 60 61 57 55 55 58 59 46 43 43 39 38 43 52 57 56 82 76 80 83 61 51 56 63
84 74 87 85 82 89 91 96 97 92 96 96 96 96 97 97 99 100 100 100 100 92 75 66 62 60 70 62 72 68 71 66 62 50 45 41 38 40 51 61 59 62 69 70 65 54 54 53 56
92 96 95 89 84 86 82 96 97 96 96 95 96 96 96 97 97 99 100 95 89 85 83 82 81 81 74 71 83 83 67 64 47 43 42 41 42 43 48 50 57 76 81 75 72 68 65 59 55
86 92 96 91 73 90 98 96 96 96 96 95 96 97 96 96 96 97 98 99 98 92 85 89 92 93 97 91 83 73 58 49 42 36 32 32 35 42 49 52 60 68 95 88 80 77 70 66 62

GFSSGP_700_rhum_126.txt.gz
RH
23 23 19 12 14 10 7 4 2 4 6 5 12 14 7 14 20 26 24 23 30 17 22 24 32 30 22 21 15 12 14 16 21 27 26 23 20 19 17 17 36 40 44 43 42 43 40 41 50
27 26 27 21 14 10 8 8 6 7 5 3 3 3 6 16 20 26 24 23 26 20 28 26 37 29 24 17 12 11 12 15 20 26 23 25 22 19 17 16 21 43 45 48 48 40 40 39 42
30 30 31 24 18 15 12 10 8 4 4 5 4 4 6 15 21 25 22 23 23 25 28 33 38 26 18 12 11 12 12 14 20 22 20 23 23 18 16 16 20 35 49 51 50 46 48 48 44
32 33 33 28 20 17 13 10 16 15 15 15 14 8 9 14 16 18 19 20 27 32 30 38 28 20 13 11 12 12 13 15 17 19 20 19 20 18 17 16 19 26 46 48 52 49 54 50 50
32 35 32 29 25 23 23 22 21 21 22 21 22 22 11 12 16 17 20 21 25 34 35 33 23 15 13 12 12 12 12 15 16 14 15 16 18 18 18 17 18 25 38 50 54 52 51 53 56
34 34 31 26 24 26 26 26 25 25 27 29 26 24 21 10 12 19 24 34 38 39 35 27 21 18 17 14 13 13 12 13 14 13 14 15 15 17 20 18 21 26 35 51 51 54 56 56 59
22 30 28 27 30 30 29 26 30 32 32 32 30 26 28 26 9 18 26 40 44 44 28 24 22 20 18 15 14 13 12 12 13 14 14 14 14 15 19 20 24 28 39 48 53 58 60 63 64
9 29 28 29 27 25 30 20 21 26 31 26 32 29 30 22 13 12 25 42 49 47 24 26 22 20 17 16 14 13 13 13 14 14 14 14 14 15 16 20 24 30 37 48 52 62 65 68 70
1 29 22 22 28 25 36 10 28 13 13 33 24 31 32 26 22 12 19 44 52 43 23 27 23 20 17 17 16 14 14 15 15 15 15 15 15 15 16 18 23 36 38 40 57 63 71 71 69
2 21 17 26 34 35 30 9 2 6 21 20 18 32 22 25 27 21 15 31 55 56 26 26 24 22 19 18 17 16 16 16 17 17 16 16 17 17 17 17 19 32 35 41 44 64 69 75 77
19 16 22 23 35 6 8 7 9 2 4 26 20 6 14 31 24 27 16 17 40 54 40 24 25 22 22 20 18 18 17 17 18 18 18 18 20 21 20 17 16 20 28 31 37 47 60 67 78
3 5 3 7 6 3 4 4 3 3 2 2 2 2 3 5 18 33 27 18 23 45 47 25 27 24 22 22 19 18 18 19 19 19 19 20 22 24 24 22 16 16 20 27 32 40 50 57 72
4 7 5 4 4 4 4 3 5 7 3 2 2 2 2 3 3 16 31 27 21 29 55 26 28 26 24 25 20 20 20 20 20 20 20 21 22 24 26 26 19 16 16 18 25 35 42 46 60
7 6 5 6 6 6 5 5 6 10 8 6 4 3 2 3 4 4 6 24 28 32 39 41 30 28 26 23 21 20 21 22 22 22 22 22 23 23 24 27 23 17 16 16 17 20 32 44 49
5 5 18 22 13 16 8 7 14 16 24 25 10 6 3 2 2 3 4 4 24 38 44 47 35 31 27 24 22 22 21 21 22 24 25 25 25 25 25 25 27 23 21 22 21 19 18 27 33
12 15 23 21 27 24 20 12 21 25 21 29 18 9 5 3 3 2 3 4 7 28 51 49 47 35 30 26 23 24 23 23 24 25 27 28 28 28 29 28 28 28 24 24 25 18 16 15 29
30 24 22 26 32 33 32 24 29 30 31 31 33 24 16 8 4 3 3 3 3 16 36 53 55 46 33 30 26 25 25 26 27 28 29 30 31 32 31 31 32 31 29 26 27 23 21 17 13
20 23 23 26 29 32 31 28 28 31 35 36 32 32 31 35 40 16 4 6 4 3 26 44 58 56 36 35 28 26 31 36 32 35 36 35 34 36 34 33 34 34 32 30 28 28 26 24 16
34 32 30 28 36 39 36 31 27 30 34 38 44 46 51 53 49 41 19 28 4 2 8 35 46 59 52 37 32 30 53 62 58 59 57 47 42 37 38 36 33 34 41 36 32 31 29 28 27
35 37 31 31 40 43 35 33 30 30 44 67 63 50 37 27 25 21 15 13 9 6 3 20 38 43 66 45 40 48 55 54 62 63 66 66 64 58 58 53 51 51 56 55 36 36 34 33 32
45 44 39 40 44 40 38 34 19 34 76 87 68 57 62 63 34 40 26 15 10 34 11 7 32 40 52 70 50 63 70 59 55 49 59 52 57 61 61 62 56 56 61 64 47 42 40 38 38
48 50 52 53 46 34 40 38 35 69 70 97 69 68 72 67 70 63 51 17 14 35 42 35 27 40 44 67 70 75 66 53 53 68 58 45 42 46 47 47 58 67 72 66 56 48 46 44 42
51 54 59 58 56 49 32 35 31 82 78 74 88 78 75 85 76 91 83 34 28 36 51 52 38 40 44 62 74 82 82 77 62 60 45 35 30 45 45 44 43 56 75 83 66 60 55 51 50
41 53 65 61 57 46 36 49 61 98 96 80 85 82 78 90 94 98 100 88 51 59 60 58 49 40 43 66 63 72 87 72 54 34 29 29 28 28 29 37 36 43 67 92 76 80 77 61 61
68 70 43 42 56 34 33 39 99 93 90 92 89 84 84 100 96 98 100 96 56 64 64 63 53 43 41 55 38 40 51 41 33 33 32 32 32 32 32 35 37 40 40 70 84 91 76 61 55
73 66 42 46 33 35 42 66 100 94 94 95 95 96 96 94 96 99 99 100 86 81 67 72 77 67 49 39 39 38 40 43 41 40 38 37 38 35 36 36 39 47 50 66 79 78 74 76 71
88 74 56 58 56 56 58 99 94 87 93 95 95 95 96 96 96 99 100 100 100 93 74 69 76 77 65 49 44 42 41 44 45 45 45 48 48 44 44 44 46 53 58 61 77 96 79 83 77
87 92 81 74 66 60 61 95 97 83 90 95 95 96 96 96 96 98 99 100 100 100 86 68 68 69 71 81 53 46 46 49 49 51 52 55 56 54 54 50 49 52 57 64 77 78 86 88 78
98 94 83 73 65 63 62 94 100 92 95 94 95 96 96 96 97 97 99 100 100 100 98 65 61 63 66 65 60 66 66 63 68 61 57 57 65 63 58 56 56 56 59 66 78 78 98 78 74
99 94 77 76 65 66 87 95 90 89 94 96 95 96 96 96 96 97 97 98 98 100 100 99 72 70 70 71 75 76 80 77 74 70 69 77 71 58 54 51 51 57 61 58 66 70 86 79 80

GFSSGP_700_rhum_132.txt.gz
RH
23 23 22 21 24 19 11 8 6 4 6 10 11 12 10 8 9 27 58 48 38 29 18 20 19 20 31 22 20 11 10 9 12 16 20 23 23 20 16 24 36 40 42 39 42 41 39 41 47
25 25 26 26 25 16 12 9 6 7 7 9 8 8 9 10 14 20 30 45 34 29 16 19 19 20 33 23 20 11 10 10 13 16 18 21 25 23 19 19 29 40 45 46 44 38 38 39 41
27 28 28 32 24 18 13 10 9 9 8 11 14 13 11 10 16 26 28 21 19 22 15 17 20 20 33 20 18 11 11 10 13 16 20 22 23 23 21 19 25 35 43 47 50 46 44 45 44
24 28 29 30 24 18 16 11 10 14 16 17 18 19 19 18 15 16 16 11 13 23 18 25 23 22 32 20 16 12 13 12 13 16 19 23 24 21 19 19 22 30 41 50 44 46 52 54 51
20 31 36 30 25 22 19 17 15 18 20 20 22 22 24 27 36 28 12 12 12 20 21 30 26 24 31 20 16 15 14 13 13 16 19 21 23 20 19 18 19 24 33 45 51 53 51 50 53
39 35 30 26 21 19 19 20 20 22 24 24 24 25 25 30 37 28 18 11 20 26 27 32 27 30 27 19 16 16 15 14 13 16 18 18 19 19 18 19 20 22 28 43 48 54 53 55 54
29 28 26 23 20 18 17 21 23 23 25 26 29 29 27 33 38 33 27 8 19 37 33 36 29 32 22 18 16 17 16 15 14 15 16 17 16 17 17 19 20 23 26 36 50 52 53 57 59
34 31 28 21 18 16 15 19 23 24 23 30 31 29 31 35 42 38 31 17 18 32 44 35 31 29 22 18 17 17 16 16 14 14 14 14 14 14 15 16 19 23 26 33 44 48 54 56 59
22 27 21 18 14 21 24 24 24 25 26 23 24 28 32 32 38 41 29 18 38 31 45 41 39 32 23 20 18 18 16 15 14 13 13 14 14 14 14 16 17 20 25 31 39 45 48 54 62
20 23 20 14 15 21 27 29 26 18 17 16 17 22 24 27 32 31 21 24 27 29 38 47 46 36 29 23 19 19 17 16 14 13 14 14 14 14 15 16 16 18 26 29 32 40 44 48 62
14 17 17 15 16 20 17 16 13 5 8 11 13 13 17 20 24 20 7 22 27 34 39 52 53 55 34 31 22 20 18 16 14 14 14 15 15 15 16 17 17 17 21 32 32 31 37 46 51
13 12 12 11 9 9 8 6 6 7 5 5 7 11 10 9 11 12 12 9 21 28 34 51 77 71 74 37 27 21 19 17 15 15 16 16 16 16 19 21 29 19 17 22 29 29 32 42 43
16 16 16 15 14 13 15 16 17 12 10 15 12 9 11 16 15 18 13 6 5 15 28 34 53 78 94 66 87 32 20 18 17 16 16 17 17 18 20 24 24 28 16 19 20 22 26 32 37
13 13 10 6 10 17 17 17 13 14 18 18 18 18 20 22 23 24 26 19 8 8 13 28 35 59 84 100 76 65 64 20 18 17 17 18 18 18 20 23 24 25 17 23 18 19 22 23 28
15 9 8 12 18 16 16 15 15 18 20 21 21 22 22 23 26 27 26 26 26 14 6 12 34 35 67 78 100 93 46 26 20 18 18 19 19 19 21 22 23 24 21 19 27 25 31 29 24
9 22 22 18 16 16 18 19 17 18 19 20 21 21 23 25 26 27 28 29 28 28 19 17 20 33 54 61 67 100 73 33 26 19 18 20 20 20 21 22 23 25 25 24 22 22 22 22 24
20 20 18 16 15 12 16 18 18 19 20 20 21 28 35 40 38 33 30 27 29 30 22 10 13 24 42 48 50 58 94 69 40 24 20 20 21 21 22 23 23 26 26 26 26 25 24 25 23
19 17 16 14 12 14 16 18 21 21 20 27 41 55 52 44 39 32 33 29 26 38 32 13 7 10 23 44 44 60 64 86 66 34 21 20 22 22 23 23 25 26 30 28 28 29 29 27 27
23 16 16 16 17 20 21 22 21 22 26 42 53 37 25 25 26 35 36 36 29 13 24 40 23 5 10 33 47 45 68 68 71 42 29 21 21 23 24 24 28 30 29 30 33 34 34 31 30
21 23 23 22 22 23 23 23 23 31 43 45 27 28 38 40 41 40 38 34 35 37 12 13 18 18 18 36 49 46 54 69 74 65 38 23 22 23 25 27 27 30 34 33 30 33 35 39 38
27 28 26 28 29 28 26 22 16 41 48 45 44 44 39 43 44 43 43 44 40 46 39 31 25 15 13 34 51 57 39 60 73 77 46 33 25 23 25 28 29 30 34 36 36 37 36 40 44
28 32 39 37 35 30 24 24 20 47 51 43 36 36 41 48 50 51 56 54 53 56 50 46 37 20 13 10 47 67 77 97 79 72 58 40 29 25 26 29 32 33 35 36 38 39 42 45 50
36 41 46 47 42 38 33 25 48 46 49 41 40 44 51 59 61 61 64 67 67 66 66 53 40 13 28 8 13 54 90 71 98 79 76 50 34 27 27 30 34 42 50 51 51 56 57 58 59
45 43 50 50 44 41 26 22 54 47 50 49 45 52 59 63 72 70 68 73 73 80 96 95 65 36 20 7 5 28 80 96 94 98 97 72 51 34 31 34 48 74 79 77 79 69 69 72 81
56 57 48 45 47 39 18 22 83 83 59 50 50 59 62 74 80 83 78 76 78 78 98 98 90 36 46 22 10 10 51 99 98 97 69 99 75 60 76 59 74 83 80 80 69 63 57 61 68
54 47 45 48 33 34 34 50 100 79 59 56 59 64 75 77 88 90 85 82 77 73 77 91 100 95 98 99 45 32 31 83 93 99 95 72 98 90 50 99 82 73 65 64 57 42 40 41 49
51 50 52 51 50 47 49 96 100 98 69 58 61 70 74 79 92 94 90 87 88 84 90 92 100 100 99 100 96 73 36 42 99 99 100 100 87 92 87 99 77 71 58 42 40 44 44 51 47
54 59 62 55 58 53 34 95 100 92 63 62 63 70 79 87 92 96 93 88 92 89 96 98 99 97 100 100 100 99 56 46 96 88 98 97 97 98 100 100 76 58 48 52 47 47 48 56 55
66 61 60 63 62 66 62 86 88 75 64 65 70 78 88 89 93 96 96 96 98 95 96 97 97 98 98 99 100 100 75 91 98 98 90 100 99 90 90 79 70 67 62 51 47 48 48 54 58
74 73 81 94 62 55 85 92 87 68 68 70 75 85 93 94 94 95 96 98 97 95 95 97 98 100 98 99 100 99 98 100 99 98 82 95 86 100 100 96 87 67 67 62 57 57 56 61 63

GFSSGP_700_rhum_135.txt.gz
RH
25 25 25 22 19 20 17 12 12 8 6 8 7 8 9 6 12 50 87 71 44 40 29 25 22 18 24 31 22 18 10 9 8 9 12 16 16 14 18 28 31 36 36 40 40 40 42 48 53
27 27 26 22 22 22 17 10 9 8 8 8 8 8 8 12 27 47 63 53 30 33 34 24 22 20 20 32 23 19 12 12 10 10 12 15 18 16 15 19 28 39 42 39 35 38 41 42 45
26 27 28 30 27 19 16 12 9 9 13 15 13 13 13 12 12 14 22 26 27 22 19 22 25 22 20 32 25 19 11 12 12 12 12 15 17 16 15 15 20 35 43 44 46 41 38 41 41
21 26 28 31 26 20 24 20 14 17 18 19 20 20 22 24 19 14 12 13 13 17 10 20 28 23 20 31 26 18 11 12 12 12 13 14 16 16 15 15 17 24 38 44 40 39 48 51 51
14 21 29 34 30 20 18 20 16 14 19 21 22 23 28 37 34 34 27 23 11 11 7 20 33 26 21 29 26 18 13 13 13 13 13 14 15 15 14 15 16 18 26 40 37 36 42 48 47
12 31 34 33 28 26 22 20 21 22 24 23 25 27 34 46 42 38 32 26 12 15 22 21 39 30 22 28 27 18 14 14 13 14 14 14 14 14 13 14 15 17 22 30 38 43 39 45 50
17 34 32 30 27 24 20 22 23 23 23 26 27 29 34 35 37 39 37 32 24 14 22 32 46 39 23 27 27 17 15 15 13 13 14 14 14 14 14 13 14 16 20 26 33 40 40 44 51
29 35 27 24 21 20 22 24 25 24 25 27 29 27 29 32 33 35 38 37 30 24 17 31 45 43 26 28 26 20 17 16 14 13 12 13 14 14 14 13 14 14 19 23 29 38 37 46 53
30 33 25 26 16 15 20 23 25 24 24 25 22 26 27 31 31 34 32 34 33 30 22 28 49 41 36 31 30 25 20 17 15 13 12 12 13 14 14 14 14 16 18 21 28 32 35 41 54
11 14 9 23 17 15 15 18 24 24 24 21 10 12 23 25 28 27 24 20 20 26 24 19 32 50 50 48 36 31 26 21 18 15 14 14 13 14 14 14 15 16 17 20 24 28 34 40 50
12 9 11 13 15 13 15 14 14 11 14 6 4 5 8 20 23 23 21 14 11 12 26 25 19 34 52 58 51 38 32 26 21 17 14 14 14 15 15 15 16 16 16 26 31 27 29 41 44
13 13 12 10 9 7 6 6 6 6 6 7 8 9 9 6 6 6 6 6 5 10 23 36 32 44 54 70 56 54 40 31 25 20 16 15 15 15 15 16 18 18 18 18 25 29 26 33 38
12 14 14 14 13 14 12 8 10 8 11 12 14 16 17 16 16 19 16 11 8 6 10 20 38 40 44 70 80 58 42 34 27 23 19 16 16 16 16 17 19 26 23 18 18 19 21 23 22
10 12 13 10 7 10 10 16 14 16 17 17 18 17 18 22 22 22 20 19 14 9 6 11 20 42 31 40 67 91 80 60 42 29 22 18 17 17 17 18 23 24 25 20 20 20 20 20 18
13 15 12 9 11 17 17 16 14 18 20 19 20 20 19 21 21 23 22 24 23 20 10 6 14 30 41 26 44 64 90 94 65 46 25 18 17 17 18 18 20 24 25 20 20 20 22 22 20
14 13 14 17 16 17 17 15 13 19 18 19 20 20 21 21 21 22 22 20 22 24 24 20 10 15 30 35 25 48 80 91 98 61 34 22 18 17 19 19 20 22 24 22 20 26 26 25 21
18 18 18 20 17 15 16 17 17 18 19 20 21 22 23 22 23 22 24 25 25 22 22 23 31 20 15 29 36 28 53 68 83 82 50 36 22 19 19 20 20 22 23 22 23 22 22 23 24
24 24 22 17 15 13 15 16 18 19 22 23 24 26 26 27 28 27 26 30 31 33 27 16 12 26 20 19 37 42 29 56 76 73 87 61 45 20 21 21 21 23 23 22 24 25 26 25 26
28 24 20 12 7 17 20 21 22 22 24 26 26 26 27 26 26 34 33 32 32 30 27 20 13 9 10 16 26 44 44 38 60 73 95 85 75 28 22 21 22 23 23 24 25 26 27 28 29
25 20 16 11 22 23 23 23 24 27 28 28 30 28 26 34 28 26 32 36 36 31 27 28 29 21 24 9 7 25 40 43 43 81 76 68 72 59 28 23 22 22 25 26 29 28 30 33 33
24 17 23 28 27 25 24 26 29 35 43 39 30 32 38 28 25 31 36 36 37 37 39 38 37 33 31 29 16 9 22 43 44 66 86 76 79 72 48 27 24 24 25 28 30 32 33 35 36
28 25 32 29 33 36 31 36 37 44 46 41 40 39 31 27 32 38 39 43 42 42 51 46 45 40 37 37 30 27 9 23 54 50 97 77 83 72 54 34 25 24 26 29 31 33 34 39 40
29 32 39 37 33 45 36 41 50 63 54 48 44 36 34 34 38 41 47 49 53 52 48 55 51 44 40 41 45 37 26 9 31 72 97 90 86 80 93 55 25 24 26 29 33 35 35 38 40
35 34 32 26 50 64 27 43 57 61 52 48 44 41 40 39 44 52 57 55 57 59 60 55 40 26 46 56 50 32 13 7 8 59 97 100 96 85 95 86 38 27 27 29 33 35 37 40 43
40 39 61 67 72 69 31 42 77 70 58 56 51 48 44 47 52 58 58 59 59 66 70 70 74 61 50 47 44 28 13 8 6 24 88 99 100 90 83 99 75 52 43 33 35 40 57 61 70
38 45 59 69 64 62 48 83 97 80 72 67 58 54 51 56 61 66 69 70 70 79 76 77 78 81 79 89 62 28 19 26 19 20 56 86 100 92 100 81 92 44 56 43 44 66 85 86 84
44 49 53 52 55 60 53 97 96 84 74 69 57 54 59 65 68 75 80 84 87 89 93 90 86 81 77 86 100 98 100 100 97 71 37 83 86 97 94 79 100 91 76 65 96 94 96 90 83
46 58 58 60 70 77 82 96 96 91 82 59 56 59 67 73 80 84 90 93 94 99 100 100 99 92 96 95 98 99 98 99 98 47 28 95 86 91 90 91 100 94 76 74 100 98 98 93 86
50 52 56 60 66 91 89 94 80 78 67 60 59 66 70 77 80 93 97 98 99 100 98 100 96 94 94 94 98 98 99 99 99 46 40 65 89 82 91 98 100 93 100 96 95 76 64 58 56
58 63 64 64 74 76 87 90 81 84 67 56 65 70 76 82 89 98 98 96 97 100 100 98 92 93 97 98 99 97 99 99 100 97 72 68 100 100 100 95 93 100 99 100 91 82 93 82 73

GFSSGP_700_rhum_138.txt.gz
RH
25 22 23 21 19 15 13 12 14 11 10 9 9 7 7 7 8 19 36 68 69 47 41 40 28 28 20 30 31 23 20 9 8 7 8 12 12 10 10 13 23 33 39 41 49 50 52 54 54
25 24 24 24 19 18 13 10 10 10 11 14 9 10 8 12 19 31 49 45 44 35 34 26 29 29 23 24 32 25 21 11 10 8 8 10 12 11 10 13 21 30 35 40 42 42 44 47 52
23 24 26 25 20 19 15 21 22 16 19 19 14 12 13 22 20 16 18 23 19 22 25 17 19 28 33 23 32 28 21 13 11 10 9 10 12 13 11 10 16 28 39 40 39 37 39 41 42
18 21 25 24 22 24 28 26 24 19 22 22 19 16 24 25 24 22 20 18 22 20 12 10 14 30 34 24 31 31 21 14 12 12 11 10 12 12 12 11 12 19 32 41 44 43 39 45 44
14 16 24 24 19 27 26 22 23 23 23 23 22 36 30 41 44 38 31 27 26 24 17 11 14 27 38 30 31 33 22 16 14 13 13 12 12 13 12 11 11 15 24 35 42 39 48 54 51
10 14 23 21 19 28 25 25 25 25 27 30 27 33 34 44 42 40 38 36 32 27 13 14 25 37 46 34 32 36 26 19 16 15 15 14 13 12 13 12 11 13 17 28 35 41 41 47 48
9 16 22 25 22 25 25 26 24 25 25 29 32 30 33 36 34 34 35 30 31 30 26 13 26 46 59 36 29 37 31 21 18 17 17 17 16 14 13 12 12 12 15 21 32 39 46 49 53
11 17 21 27 26 21 22 25 26 25 25 27 29 28 28 30 31 32 32 34 35 34 29 26 23 52 60 56 44 40 40 28 21 19 19 18 18 16 14 13 12 12 13 18 26 34 43 52 54
9 18 15 25 23 17 16 17 26 24 26 25 25 25 25 26 25 28 30 31 32 34 32 29 47 32 55 57 52 54 45 36 26 21 18 16 16 16 14 14 13 13 13 15 20 33 44 47 58
10 10 10 20 24 21 16 16 15 24 25 25 19 17 16 14 14 15 26 27 26 26 23 22 24 22 40 52 47 49 53 42 33 28 22 18 17 17 16 16 15 14 15 16 18 24 40 47 54
9 7 8 15 22 20 18 17 14 12 12 9 9 18 10 7 13 22 23 21 21 21 21 18 9 19 21 51 60 59 53 54 38 32 27 23 20 19 17 16 15 15 16 16 20 25 31 46 53
11 10 11 10 11 13 13 10 7 7 8 7 7 7 6 6 6 6 10 13 17 17 17 17 20 19 19 37 62 54 78 59 64 44 40 30 21 18 16 16 16 16 17 17 19 33 28 32 49
13 13 14 12 12 12 11 9 7 8 11 10 10 10 10 10 10 10 9 8 8 8 7 10 22 31 28 22 33 55 58 72 65 63 48 38 28 21 18 17 16 16 18 18 17 22 27 25 32
11 12 12 12 13 13 14 11 11 15 16 18 17 16 16 16 12 11 11 12 12 14 12 10 11 23 32 32 30 31 52 60 69 70 65 51 37 25 20 18 18 17 19 26 20 17 19 20 23
12 14 15 14 13 10 12 15 16 16 19 20 19 19 19 19 18 15 16 17 19 20 20 17 12 12 21 32 37 37 38 60 59 54 66 73 60 36 26 19 18 18 20 25 29 19 18 18 18
14 15 14 18 18 17 18 16 15 18 19 19 19 19 20 18 17 16 19 21 22 22 22 24 22 13 11 15 34 38 41 42 58 75 78 64 75 68 32 18 17 19 20 26 27 20 21 20 23
16 18 21 19 18 17 16 17 16 17 19 19 19 20 20 19 19 22 23 24 25 27 24 22 22 21 14 5 11 30 40 42 44 68 87 80 76 78 74 22 18 19 19 25 26 22 20 25 26
21 25 24 21 19 16 17 17 18 18 18 18 20 22 22 23 23 24 24 26 27 21 21 23 26 19 15 13 8 4 22 39 42 55 74 87 84 97 87 57 21 19 20 22 26 23 20 26 24
26 27 28 23 21 13 20 21 21 21 21 20 22 23 24 26 26 27 27 29 22 22 25 25 24 24 22 20 18 14 5 14 37 44 66 77 95 87 96 77 43 21 20 21 24 24 25 24 23
29 29 28 25 19 14 25 25 25 24 23 24 26 26 26 29 28 29 31 24 22 23 26 25 23 22 21 24 25 22 16 8 9 37 46 80 100 100 88 84 75 36 22 22 24 24 26 25 26
31 28 26 23 22 24 28 28 26 26 26 27 28 29 33 32 32 32 30 23 23 27 29 30 28 28 29 34 31 29 25 18 12 9 39 47 89 100 87 99 92 47 31 32 24 25 26 28 28
32 32 30 28 31 33 31 41 28 28 38 36 37 38 41 44 38 32 28 26 32 34 35 37 36 38 35 37 37 32 29 26 21 20 11 37 48 99 100 99 76 81 58 26 26 26 26 30 32
33 32 30 33 38 39 38 35 45 40 41 38 47 51 48 39 34 32 32 35 40 39 40 44 45 43 30 17 11 11 15 24 27 27 23 11 37 75 99 99 92 84 73 43 37 26 27 30 33
35 34 33 36 35 59 45 44 55 57 45 58 62 52 42 42 37 36 41 43 43 46 49 50 53 50 41 35 28 26 12 9 16 28 32 23 12 40 93 100 100 99 97 78 41 34 27 31 34
38 38 45 67 76 68 50 52 55 60 63 63 54 49 48 41 38 41 43 45 50 54 58 61 61 61 60 60 60 54 26 30 40 34 30 33 18 23 48 100 100 97 86 99 80 47 35 36 36
43 40 47 74 75 64 50 61 72 61 56 59 59 54 47 44 46 46 48 56 62 68 72 76 75 69 55 55 72 83 76 44 27 26 18 12 9 25 37 67 100 100 100 92 88 84 54 54 50
44 44 42 55 56 62 58 65 63 48 54 69 63 56 50 51 52 49 63 70 76 76 85 91 91 83 92 83 81 95 100 100 96 76 20 12 12 98 54 48 96 100 100 95 86 100 85 64 62
41 50 59 61 73 78 87 84 61 52 71 75 64 52 53 56 58 61 75 80 87 88 91 94 100 100 100 100 98 100 99 98 100 85 80 72 78 72 71 66 74 97 79 81 84 89 91 86 85
50 61 55 59 63 90 94 77 57 62 69 68 61 57 59 62 66 74 88 90 90 92 92 96 100 100 100 93 94 100 100 100 91 93 98 98 98 88 66 70 97 95 98 99 93 100 100 88 74
59 50 46 54 66 71 76 77 58 71 77 71 62 58 64 70 78 87 93 92 89 95 95 94 100 99 100 96 97 98 97 100 97 99 99 99 99 64 61 96 94 97 97 97 93 96 98 97 92

GFSSGP_700_rhum_141.txt.gz
RH
22 23 22 20 18 14 11 11 10 12 10 9 9 8 10 15 19 30 62 64 65 53 45 43 44 35 34 25 30 26 22 19 11 9 8 8 9 9 8 11 17 24 32 40 44 48 50 50 53
22 23 22 20 19 13 12 18 16 12 13 11 9 9 8 14 22 29 47 62 60 43 34 28 20 32 42 35 30 31 25 20 13 11 10 9 10 10 9 10 14 23 30 34 38 44 49 50 48
22 23 23 20 20 18 17 21 25 18 16 18 12 10 11 14 15 17 23 26 21 20 19 21 20 21 31 46 33 35 29 23 17 13 12 12 13 13 11 10 13 22 29 34 38 40 42 44 43
17 21 24 22 21 30 30 26 22 18 20 18 17 16 23 23 28 30 28 20 18 19 22 22 15 10 22 42 41 38 36 27 20 16 15 16 16 16 14 11 12 17 27 33 36 36 35 38 39
13 16 20 21 26 29 26 25 22 20 22 23 22 32 35 44 37 33 26 22 20 24 26 22 18 20 30 49 56 44 44 34 26 20 21 20 18 18 17 14 12 13 18 26 34 41 38 45 47
9 13 16 18 28 27 28 29 26 26 29 28 30 27 36 43 41 43 40 34 32 32 29 28 21 19 32 62 76 58 55 43 32 25 25 22 20 20 21 16 14 13 14 18 27 34 36 49 52
7 11 15 18 29 26 27 27 29 33 35 37 38 37 36 40 38 36 34 32 29 29 29 26 26 28 27 44 64 63 62 53 39 28 21 21 21 21 23 20 17 14 14 16 22 29 38 41 43
6 15 19 22 29 25 23 27 26 28 27 33 33 30 35 36 33 31 31 29 27 29 30 31 30 30 29 22 49 53 61 66 54 38 28 24 24 23 23 22 20 18 16 15 19 26 33 40 46
5 20 19 26 25 22 19 17 26 25 26 24 26 24 24 25 26 31 35 25 22 20 24 28 29 29 28 41 35 49 54 70 74 59 40 26 24 24 23 22 21 19 18 16 17 23 32 40 41
9 13 19 26 28 23 21 17 16 19 25 24 22 23 21 20 19 16 18 22 21 21 25 26 25 23 21 22 37 42 49 54 71 77 68 48 33 26 23 21 20 20 19 17 17 20 27 40 42
9 10 12 13 23 24 22 20 17 18 14 12 15 14 12 10 9 9 9 12 17 20 21 21 20 18 11 10 12 45 53 50 47 68 76 73 56 38 28 23 20 19 19 18 17 19 26 34 44
8 8 9 10 12 13 13 15 14 10 9 8 8 7 8 8 8 8 7 9 8 8 11 13 12 15 17 12 12 24 68 58 51 52 68 73 75 61 39 29 23 20 20 20 19 20 27 34 41
7 8 10 11 12 12 12 13 13 10 10 11 12 13 12 12 13 12 12 11 9 8 8 8 9 10 18 24 20 28 33 78 69 57 60 62 67 66 66 47 35 24 19 19 19 20 24 34 33
10 11 11 12 12 12 13 13 12 11 14 16 16 16 15 14 14 13 13 14 14 16 14 12 11 12 13 17 27 31 34 35 46 73 61 62 68 55 55 60 48 31 21 20 20 20 21 34 36
12 14 14 15 15 14 14 14 9 13 16 17 17 16 15 14 14 16 17 16 17 18 18 18 18 16 11 9 11 21 31 35 38 34 75 64 70 75 62 59 72 40 28 23 22 22 22 21 28
15 16 16 16 18 16 14 14 16 16 18 19 19 19 19 19 16 16 16 16 16 17 16 16 15 15 16 14 11 7 11 27 35 40 34 66 72 78 64 64 59 58 52 28 25 23 30 22 20
16 16 16 18 19 18 17 16 16 16 17 19 20 20 19 18 18 18 20 20 21 22 24 20 18 18 14 10 12 13 11 6 15 34 40 38 68 93 87 80 73 70 59 44 28 24 28 32 20
20 19 23 22 20 19 16 16 17 16 16 16 17 18 18 19 20 21 21 22 23 23 26 22 21 16 15 15 10 9 10 13 12 7 26 40 41 86 100 96 88 61 84 61 35 24 29 31 23
22 28 27 23 24 21 18 16 18 18 18 19 20 21 22 22 21 22 23 25 26 26 29 24 21 15 15 15 14 13 12 10 11 14 12 16 38 42 96 99 81 82 62 82 53 31 32 33 28
29 30 28 27 26 25 21 19 18 20 21 23 24 26 24 23 23 26 28 30 29 30 26 24 17 17 17 16 16 17 15 14 15 16 17 13 13 37 40 94 99 93 87 67 76 43 33 37 33
35 31 29 29 28 25 23 29 29 28 28 28 28 28 26 24 25 29 32 32 34 30 24 19 20 22 22 23 23 23 20 19 17 18 21 22 11 11 36 43 93 99 100 95 82 57 49 34 36
36 32 32 33 32 31 30 36 26 25 25 30 28 28 27 29 36 40 40 39 32 23 21 26 30 30 30 30 29 29 25 18 17 15 16 24 22 9 10 35 42 93 99 98 79 86 67 49 44
33 35 36 34 33 39 40 37 33 32 27 24 24 31 41 42 45 46 40 33 27 30 32 36 40 40 37 37 36 30 22 15 13 12 12 15 26 23 13 16 36 40 88 95 85 68 73 61 43
43 38 37 34 43 54 42 36 25 32 30 34 36 43 51 56 48 42 34 33 35 39 43 45 48 48 47 45 48 49 46 38 33 25 26 26 15 20 25 21 18 35 48 95 94 90 87 84 46
44 42 45 60 74 51 38 44 34 49 45 44 48 54 56 50 45 38 36 36 40 45 50 50 54 57 54 56 54 53 54 53 50 38 38 21 26 27 27 30 17 20 37 52 98 100 100 100 80
43 45 44 66 70 69 57 57 51 50 49 50 49 53 54 50 44 42 42 44 51 59 58 63 66 64 63 56 54 52 59 63 73 78 52 28 28 28 31 40 30 17 36 42 92 100 98 86 100
44 46 50 47 54 70 56 54 48 40 37 49 56 60 55 53 49 48 51 55 66 67 67 75 76 73 76 72 71 66 82 91 91 84 67 37 38 52 99 56 27 25 27 32 55 100 81 91 87
55 47 47 52 76 81 80 68 44 43 51 59 59 58 60 55 49 56 60 72 80 75 82 88 86 85 84 91 87 96 87 95 98 98 61 84 98 78 63 22 51 52 43 33 62 82 94 73 81
54 59 59 68 60 83 95 67 48 42 44 55 61 66 61 50 56 64 72 81 82 75 79 91 93 91 92 97 98 99 89 99 100 96 97 88 99 100 100 87 70 57 42 58 69 100 98 96 65
65 68 59 97 74 69 73 70 48 51 57 63 67 67 57 59 62 75 80 81 79 54 31 46 85 98 95 98 98 100 100 100 100 98 93 98 98 99 100 99 83 71 88 73 82 91 100 100 87

GFSSGP_700_rhum_144.txt.gz
RH
22 21 20 18 17 12 14 16 20 14 14 10 9 9 10 21 39 46 68 65 60 50 44 38 39 45 41 44 31 30 28 24 20 16 14 13 12 12 12 12 13 14 15 22 34 38 39 40 45
22 22 20 18 17 12 16 20 20 20 25 18 13 14 22 27 49 72 72 66 57 44 32 26 24 27 35 44 44 35 34 29 24 20 18 17 15 14 13 12 12 17 18 21 28 34 36 38 39
22 22 21 18 18 20 16 22 22 20 16 16 15 16 12 22 34 46 48 44 39 25 22 22 24 32 37 49 63 48 42 38 30 24 22 20 19 16 15 13 12 15 19 24 29 35 36 34 35
17 19 22 21 25 26 24 20 24 19 17 17 16 14 16 21 32 27 23 20 16 21 22 23 23 20 17 28 62 62 52 46 37 28 22 19 19 18 18 16 14 15 18 25 30 33 32 32 34
14 16 19 23 28 28 26 24 23 20 20 19 20 23 25 30 29 25 21 20 24 23 27 27 25 25 17 17 24 64 64 57 47 35 27 23 24 22 20 20 18 16 18 24 31 36 37 33 28
10 13 16 24 29 31 32 27 25 20 22 23 24 25 31 39 39 35 31 34 35 35 32 29 28 28 28 28 25 43 68 69 63 46 34 28 25 24 22 20 20 19 18 20 28 33 35 34 35
7 10 16 23 31 28 34 36 32 26 26 30 32 34 33 40 41 39 38 38 35 32 30 25 25 28 29 31 32 36 59 67 70 62 47 37 32 28 26 22 20 19 18 17 20 28 34 33 34
5 8 17 24 30 27 27 28 31 35 39 40 40 39 37 39 40 37 34 32 30 22 16 14 13 17 27 31 31 45 60 63 54 65 60 48 39 32 30 27 24 21 20 19 17 20 29 32 37
4 9 13 23 27 25 22 26 25 23 22 32 34 31 31 35 32 32 32 26 19 18 25 26 23 18 22 24 25 28 50 58 62 58 60 62 51 42 35 33 33 28 22 20 19 18 24 32 36
6 9 14 19 25 23 21 18 20 20 21 24 23 22 20 17 18 17 15 16 19 27 29 21 18 20 20 21 19 17 19 49 54 57 64 63 63 53 45 40 37 36 32 22 20 19 19 24 31
9 12 14 14 20 26 26 23 19 17 16 13 13 13 14 14 13 12 11 9 8 10 12 13 15 15 15 15 15 15 16 16 32 70 66 68 64 57 54 52 44 39 34 28 22 20 20 24 30
10 8 8 9 9 12 14 17 20 19 15 12 10 9 9 9 9 9 10 12 13 11 10 9 9 9 10 9 10 15 14 18 20 60 73 74 77 71 63 59 55 47 41 35 28 22 22 23 28
6 7 8 10 11 12 12 12 14 13 13 12 10 11 12 12 13 15 15 14 13 11 10 9 9 10 10 12 12 12 20 21 18 35 84 83 86 82 79 71 66 56 55 40 34 27 24 23 24
11 11 11 11 12 12 13 14 15 15 14 14 13 14 15 16 16 15 14 14 14 15 15 14 12 11 10 9 9 9 11 14 22 24 30 88 95 89 83 78 74 60 54 58 49 39 30 26 24
12 13 13 14 14 14 14 14 14 14 14 14 15 16 15 16 16 15 16 17 16 17 18 19 19 16 14 13 11 9 8 7 8 12 22 22 47 92 99 86 81 74 68 62 79 46 41 30 26
16 17 18 17 17 17 17 15 14 14 13 16 18 18 17 16 16 18 18 17 15 17 17 15 14 14 12 12 12 12 10 7 7 8 8 12 16 28 72 98 90 80 75 78 62 42 44 36 28
18 19 22 17 18 19 18 16 15 15 15 16 17 18 18 18 16 16 17 15 16 17 19 19 21 21 20 19 17 13 12 9 8 9 10 10 8 14 17 54 100 99 98 76 68 54 47 43 31
23 23 20 19 19 20 18 17 17 17 16 16 16 17 18 17 17 19 21 20 20 21 21 21 22 24 24 23 21 15 12 10 9 8 8 9 12 10 11 9 28 97 99 97 76 51 50 39 46
28 26 25 21 23 23 20 19 17 18 18 18 17 18 18 18 21 23 21 19 21 23 24 26 25 26 24 24 18 14 14 13 12 11 9 8 10 11 14 11 8 18 94 100 98 63 71 59 41
34 30 27 24 24 28 27 25 24 22 20 18 19 20 21 23 26 28 27 27 29 29 30 29 29 27 25 18 18 18 17 16 15 15 16 17 13 12 13 15 12 8 19 95 96 99 94 85 50
38 36 33 32 29 29 28 27 26 25 24 23 23 24 27 27 28 28 31 32 29 32 31 30 29 23 20 20 19 21 20 21 20 21 21 18 21 21 19 20 18 13 11 23 96 98 100 98 85
46 40 36 36 36 32 33 39 32 31 29 28 26 28 26 24 28 35 38 36 39 37 33 30 24 24 25 25 26 27 25 23 26 23 18 21 23 22 22 24 24 20 10 14 20 72 89 89 77
44 43 38 36 36 35 38 37 33 32 27 25 27 22 22 30 38 40 47 46 41 36 29 26 28 31 31 34 39 39 34 33 27 23 21 24 19 13 12 15 26 25 15 10 20 27 55 86 97
45 43 44 40 42 57 44 41 32 34 27 23 28 33 38 44 52 54 48 44 40 34 32 32 33 36 43 49 48 49 46 44 39 36 34 33 31 33 24 21 19 24 24 10 10 30 33 65 88
46 43 50 63 74 56 41 42 37 40 35 40 42 47 52 59 57 51 48 44 37 38 37 38 42 49 56 56 52 54 46 44 47 50 44 44 55 53 51 38 26 19 22 26 11 19 36 44 65
46 43 48 58 62 55 52 54 38 46 43 43 48 50 52 55 54 54 48 44 44 44 47 52 52 57 62 58 58 53 47 45 55 51 52 64 72 63 36 26 23 16 22 32 22 16 30 48 56
56 50 45 48 56 79 62 53 48 47 43 44 45 50 57 58 60 50 49 52 53 56 59 63 64 70 67 66 63 66 57 58 66 66 69 74 65 62 31 35 28 32 36 32 20 23 20 37 84
54 53 57 70 93 88 70 64 47 37 45 50 53 60 63 65 57 51 56 58 58 65 51 65 81 82 77 77 69 70 62 64 72 74 87 84 89 76 80 100 87 58 57 33 25 20 23 28 28
58 60 63 91 81 84 91 61 42 47 42 44 52 63 69 67 55 55 61 60 64 66 44 54 68 51 84 93 79 83 84 85 90 90 90 84 77 49 60 96 78 88 96 91 61 68 46 54 72
58 70 84 97 92 90 76 66 52 50 47 53 51 49 68 68 58 65 62 62 65 62 63 55 53 54 32 85 79 86 96 99 98 86 98 90 90 87 80 96 100 100 100 93 89 84 64 95 98

GFSSGP_700_rhum_147.txt.gz
RH
19 18 16 16 17 13 14 21 23 14 11 11 24 18 51 52 56 57 58 50 40 36 38 52 63 66 63 59 51 40 35 33 30 25 21 17 15 13 13 13 12 13 17 21 28 32 33 34 40
21 19 18 17 17 12 19 22 22 16 21 17 14 14 21 39 48 62 60 52 52 48 40 32 29 28 31 42 51 54 45 39 35 30 25 20 17 16 15 15 14 15 16 20 26 29 28 30 36
21 20 20 19 18 13 17 22 24 19 14 15 20 30 27 43 56 62 65 62 53 49 36 38 30 25 22 26 26 46 57 51 45 37 29 24 22 21 18 18 17 15 15 19 24 26 26 27 33
20 19 21 24 21 20 18 22 24 20 16 15 17 18 19 20 46 52 40 41 34 22 21 26 29 29 27 21 20 33 38 51 54 47 37 30 25 24 22 21 19 18 16 16 23 26 25 26 30
16 17 19 25 26 25 23 22 23 23 17 17 18 19 20 20 29 28 31 31 33 34 32 31 30 31 31 32 33 33 40 58 54 54 46 37 32 28 24 23 22 22 19 16 18 23 27 28 31
12 14 18 26 28 28 27 25 23 22 22 19 25 25 25 27 27 34 37 38 39 38 36 33 31 26 25 26 32 37 47 52 55 52 52 44 38 34 29 28 26 25 22 19 17 19 25 27 32
7 11 16 26 29 34 34 29 32 26 26 27 27 28 26 31 32 35 38 39 37 36 33 30 20 18 16 23 27 40 56 72 73 61 53 51 49 44 34 32 30 29 28 24 20 19 21 24 30
5 6 11 27 29 30 35 37 35 39 35 32 32 37 35 34 37 39 38 35 33 32 26 18 17 17 17 21 24 30 40 56 77 77 67 62 58 50 45 38 34 33 32 29 25 22 22 22 26
7 8 9 18 30 28 28 29 30 31 36 39 38 36 34 35 37 37 32 31 28 22 15 16 18 21 20 19 20 20 25 33 52 67 73 69 65 61 61 47 41 38 38 35 29 24 22 22 24
9 8 13 17 25 27 24 24 24 25 24 25 26 28 31 26 23 21 20 19 14 13 12 14 18 18 16 16 17 18 18 19 19 42 64 82 75 70 67 60 64 42 41 38 34 28 24 21 22
10 10 12 13 20 24 24 21 18 18 20 19 19 18 18 18 17 14 13 11 11 10 10 9 9 9 9 10 10 10 13 16 18 17 17 58 89 83 77 71 64 52 45 43 39 35 29 25 23
13 11 8 10 11 13 18 22 23 22 19 18 16 14 12 10 9 9 10 12 14 14 13 12 10 9 10 10 11 11 11 12 13 15 17 16 48 96 89 82 73 65 56 46 48 43 36 29 24
12 12 9 9 10 10 12 13 12 12 13 14 14 13 11 12 13 14 16 16 14 12 10 8 10 12 12 12 11 11 11 12 12 13 13 12 15 56 85 91 85 77 67 60 54 46 40 36 28
14 13 12 11 10 11 12 14 14 15 15 16 15 14 14 14 16 16 16 15 14 14 14 14 15 14 14 12 11 11 10 10 10 10 10 10 9 12 36 78 90 85 80 74 68 56 46 53 36
14 13 13 13 14 12 12 12 13 14 14 15 15 16 15 16 17 18 17 16 15 16 15 15 16 17 14 13 12 12 11 9 9 9 10 9 9 9 7 26 86 85 87 80 78 78 60 54 47
17 19 19 18 17 17 18 16 15 15 15 15 15 14 15 18 18 17 16 16 16 18 16 16 17 18 14 14 14 12 11 10 8 7 8 9 9 9 9 7 14 58 82 82 86 82 76 53 50
22 20 20 21 21 18 19 18 17 17 16 16 15 14 16 18 17 17 16 17 18 18 16 16 17 18 18 17 18 17 12 9 8 7 6 7 8 9 10 11 8 8 26 81 91 98 80 66 56
20 22 25 25 22 20 20 20 19 17 17 18 18 17 17 17 17 17 17 18 20 21 20 18 18 19 18 20 20 18 14 10 10 13 13 11 8 8 9 11 12 10 7 16 52 80 96 84 77
29 32 32 32 26 24 22 20 19 18 18 18 18 18 17 17 17 18 19 21 23 24 19 22 25 25 24 22 21 16 12 11 13 14 16 16 14 9 8 8 11 14 12 7 13 78 94 92 86
46 50 46 41 35 28 26 25 26 26 25 24 23 22 20 19 20 21 21 25 27 26 31 31 32 28 24 22 18 14 14 16 16 16 18 18 19 17 14 11 9 11 13 12 10 13 45 81 94
55 52 48 39 37 34 33 31 28 27 26 27 27 26 24 22 22 25 29 30 29 35 38 38 33 28 26 22 21 20 19 19 20 22 22 25 25 23 20 19 18 15 15 13 11 11 12 26 69
57 51 55 48 42 39 36 32 32 34 33 32 31 30 29 29 30 30 30 32 42 46 42 37 31 27 27 26 24 22 23 24 27 28 24 25 28 23 21 14 13 18 18 20 17 16 15 18 54
46 46 44 43 42 41 41 38 33 38 36 33 32 30 30 33 36 36 44 51 49 45 40 33 33 33 31 30 30 33 41 40 35 30 29 28 27 26 31 26 23 16 18 16 16 22 22 16 27
49 46 46 44 46 46 41 41 35 39 35 33 27 28 33 36 43 52 55 52 49 44 39 40 38 36 37 37 42 47 47 41 37 38 39 41 40 39 39 37 33 30 20 14 12 22 28 20 18
57 56 53 56 61 48 45 46 40 43 38 35 36 37 42 44 53 55 54 54 45 45 44 42 43 43 43 45 49 52 48 39 37 41 49 52 47 49 56 54 54 50 40 33 17 20 29 24 16
48 49 55 64 53 50 57 47 42 40 41 46 45 48 49 51 54 57 58 45 47 49 47 48 51 53 54 54 56 55 52 46 46 59 56 51 51 50 50 56 42 45 44 30 28 20 29 23 13
59 58 55 56 63 94 64 57 52 47 44 40 46 49 48 55 58 62 52 52 52 51 53 57 64 66 68 69 66 61 64 62 63 54 40 35 38 41 31 40 46 26 27 33 75 23 32 25 37
59 64 68 87 89 86 59 72 60 40 37 46 47 48 55 60 65 64 54 57 56 57 57 60 46 29 28 66 63 76 76 69 68 66 65 71 76 58 73 40 62 81 97 64 84 98 40 23 21
58 66 75 77 92 86 81 58 45 46 50 48 50 57 58 51 64 65 60 61 61 54 50 22 12 8 7 42 49 29 68 50 78 72 75 79 74 78 99 94 72 85 81 100 100 76 69 84 40
52 56 66 95 81 98 93 71 53 50 58 61 59 58 59 53 66 67 64 64 62 48 25 15 8 6 6 6 27 16 42 28 12 64 97 98 85 90 84 89 88 76 94 99 92 74 78 94 77

GFSSGP_700_rhum_150.txt.gz
RH
17 16 15 16 22 14 14 19 19 26 39 51 49 62 72 75 88 83 71 67 63 64 57 52 50 47 45 46 45 46 45 41 38 33 30 25 21 18 18 16 14 14 16 20 26 30 34 37 41
20 19 18 19 18 11 14 23 22 36 13 18 21 37 70 55 52 54 59 55 39 37 37 37 31 28 25 23 23 26 28 37 44 41 35 31 26 22 21 19 17 15 14 20 23 27 30 34 37
21 21 25 25 18 10 15 24 24 19 18 20 20 20 25 43 46 46 54 55 57 57 49 36 33 27 28 29 24 26 36 46 43 49 44 38 31 26 23 22 21 19 16 17 21 26 26 29 32
20 20 22 23 18 22 23 24 24 18 16 17 29 32 26 20 28 37 57 50 55 47 34 31 32 33 33 34 33 33 34 36 53 56 50 43 37 32 28 24 24 23 20 18 18 23 27 28 29
17 19 25 23 24 23 18 19 22 25 22 16 17 18 19 23 44 45 47 39 30 29 31 34 34 32 26 16 16 25 34 41 52 62 55 48 45 43 36 31 28 27 24 22 21 21 21 26 29
20 18 22 21 23 27 22 21 23 28 22 18 18 19 20 18 22 23 22 28 33 37 38 36 33 30 14 14 15 24 31 46 69 77 73 55 53 49 47 40 35 32 29 27 24 21 20 24 25
21 20 20 21 25 28 26 26 30 32 28 25 24 24 22 23 25 26 27 35 38 38 37 35 32 18 15 16 17 18 23 34 51 75 86 72 59 49 48 50 46 35 33 32 30 26 20 19 24
6 15 21 23 25 25 28 32 34 29 32 32 27 34 28 27 29 30 32 37 38 36 33 31 23 16 17 18 18 16 18 22 31 48 77 78 75 64 59 50 55 51 39 36 34 30 27 21 20
8 19 17 22 24 23 31 22 32 35 37 34 32 32 34 34 35 36 37 38 33 30 26 21 16 14 14 14 14 14 16 18 21 34 43 63 77 75 71 66 61 68 60 43 40 34 32 27 21
11 19 20 22 25 20 25 26 28 23 28 35 39 39 36 33 32 35 34 28 23 21 17 13 12 11 11 10 10 10 10 12 14 17 24 30 44 62 80 75 71 71 69 70 54 42 36 29 25
11 19 16 14 17 25 22 20 25 21 19 20 21 22 21 22 21 20 18 17 15 13 11 11 12 12 12 11 10 9 9 9 10 9 10 13 22 32 48 70 82 77 74 72 74 47 40 34 32
12 11 11 14 13 20 21 21 22 21 20 20 19 18 17 15 14 12 10 10 10 11 14 14 12 10 9 11 12 12 12 12 12 12 12 10 8 8 12 19 70 84 85 76 76 72 64 35 35
13 13 10 9 9 10 10 14 13 16 20 21 20 18 16 14 11 11 11 13 16 14 12 12 11 10 12 14 14 14 13 12 12 12 12 11 11 9 7 8 12 74 89 88 78 69 67 48 35
15 14 13 11 10 9 10 14 12 13 13 12 12 13 13 14 13 13 14 16 15 14 13 13 13 11 12 13 15 13 10 9 10 10 10 10 10 10 9 7 6 8 44 89 89 84 71 67 53
20 14 14 13 13 12 12 13 12 13 14 14 15 15 15 15 14 14 17 17 17 16 16 16 16 13 12 13 16 15 14 14 13 11 8 8 8 8 8 9 8 6 7 16 80 87 89 77 65
20 19 20 18 18 17 17 16 18 16 15 15 15 15 16 16 15 16 18 17 16 16 16 17 18 18 14 13 13 15 13 10 8 7 5 6 7 7 7 7 8 8 6 6 10 65 90 89 79
21 17 20 21 18 20 20 20 19 17 17 17 17 17 17 17 15 17 17 16 16 17 18 19 19 19 15 15 17 18 16 12 9 7 7 6 6 6 6 7 10 9 8 8 7 10 45 89 88
19 21 20 22 22 20 21 22 22 19 18 18 17 17 17 18 18 17 17 17 17 18 19 20 22 19 17 18 21 21 20 14 10 8 7 7 8 9 10 10 10 12 10 9 10 8 12 40 81
30 29 27 26 28 30 29 27 26 25 20 19 18 18 18 18 17 17 18 19 19 20 21 22 19 19 25 29 28 22 14 13 12 10 10 11 12 14 13 13 14 14 12 11 12 12 9 11 46
36 35 33 35 38 39 35 30 27 33 25 25 23 22 22 22 22 22 21 21 22 23 26 24 24 34 36 30 20 16 14 13 12 13 14 16 16 16 16 16 16 16 14 10 11 13 12 9 13
43 47 45 44 44 42 38 34 33 35 32 29 26 26 26 26 26 25 24 25 28 32 30 36 43 39 30 23 21 20 20 19 18 18 19 22 23 24 23 22 19 17 15 12 14 15 16 14 12
39 39 48 46 44 35 36 30 25 34 32 30 30 31 32 31 30 29 30 35 37 37 46 46 40 33 28 26 26 25 23 21 23 24 30 31 28 28 28 26 24 18 17 16 18 19 20 20 16
41 44 47 48 45 43 37 37 27 31 38 34 35 34 34 33 34 36 38 38 45 52 50 42 35 34 32 29 27 26 29 29 35 40 40 35 33 34 34 35 34 24 25 26 19 19 21 24 24
52 51 48 48 48 42 35 34 28 30 45 42 35 33 34 35 40 40 47 56 54 52 42 41 40 37 35 35 34 37 39 43 43 41 37 36 42 46 48 45 44 44 38 34 33 26 22 29 28
54 53 50 44 46 41 32 38 32 42 41 38 39 36 38 40 46 51 59 55 56 46 48 47 48 49 46 49 50 51 52 51 49 45 45 49 52 57 59 54 46 44 45 44 46 45 28 19 19
45 45 47 53 35 40 53 41 40 44 40 38 40 47 46 50 53 57 57 59 51 51 52 51 57 43 31 54 58 60 60 59 59 58 55 50 45 35 42 32 25 34 47 41 44 55 47 32 22
52 52 48 52 54 57 45 46 58 52 48 45 47 50 52 50 54 60 62 61 53 54 53 55 40 14 10 42 36 52 38 62 64 65 62 62 70 71 57 34 53 17 28 39 29 35 41 55 60
50 49 57 66 65 52 40 40 48 55 47 44 47 48 48 53 58 52 63 60 58 57 54 41 19 9 7 22 30 27 18 16 51 66 60 66 62 64 70 76 44 22 25 44 60 75 60 86 89
59 58 62 73 78 62 57 40 53 49 50 53 56 59 60 62 56 52 64 64 63 59 55 28 13 7 6 6 25 16 12 8 7 21 24 22 72 75 67 72 85 74 51 86 89 89 88 71 100
52 52 53 67 57 74 80 70 62 57 59 59 65 79 68 65 78 67 68 68 69 62 49 19 9 6 6 7 8 10 8 8 9 9 9 9 21 58 83 86 81 80 87 85 79 97 88 98 72

GFSSGP_700_rhum_156.txt.gz
RH
15 14 14 12 25 24 13 10 9 12 19 27 28 40 44 40 39 61 58 49 38 39 29 45 55 41 30 28 26 25 23 22 24 32 38 38 34 31 25 20 18 16 16 17 20 25 30 34 38
19 16 15 19 29 21 14 11 11 20 33 41 39 55 63 50 50 54 57 48 43 55 59 56 44 36 32 32 30 30 29 28 27 28 41 51 43 36 32 26 21 20 17 16 17 22 28 29 30
21 19 17 30 21 17 13 13 17 30 38 42 48 59 52 50 57 56 48 43 44 55 44 40 39 32 34 31 27 17 12 12 19 29 45 58 58 49 44 40 30 25 23 20 18 18 23 29 30
21 22 19 24 23 18 15 18 19 34 33 35 43 47 48 38 52 47 45 38 52 47 53 49 34 30 30 29 23 11 14 14 13 18 33 51 74 66 51 49 42 31 26 28 24 20 19 21 26
19 26 29 26 21 16 18 21 21 24 26 30 41 34 19 13 20 33 35 41 50 56 48 39 33 30 32 30 26 15 15 17 16 12 18 40 67 85 70 58 54 47 33 27 26 25 23 18 21
20 24 22 21 18 18 18 18 22 21 24 31 34 32 21 16 16 30 26 40 48 46 42 36 31 30 33 31 27 21 20 19 15 12 12 21 52 72 80 72 64 64 57 39 29 30 29 26 22
18 20 21 18 16 20 20 22 24 23 30 34 45 41 23 16 19 27 35 40 48 41 35 32 31 34 34 31 27 22 20 17 10 8 10 15 26 55 77 78 72 66 62 65 57 38 31 30 27
20 18 19 18 16 19 22 21 22 24 28 28 39 41 29 20 20 31 53 41 26 25 27 33 35 34 30 26 23 21 16 10 9 9 8 10 16 24 56 71 76 76 71 68 67 66 57 39 33
19 19 18 17 16 19 22 22 23 24 25 26 28 30 22 28 26 24 29 28 30 32 34 36 34 28 24 23 20 14 10 10 11 9 8 8 9 16 23 35 57 76 77 76 77 75 69 69 68
19 18 18 20 18 19 19 19 19 22 23 23 23 28 29 29 31 32 30 32 35 37 37 34 27 24 23 17 11 10 11 7 6 5 6 6 6 7 11 16 22 21 34 61 76 80 79 75 73
18 18 18 18 18 18 17 16 17 22 25 25 27 32 32 32 32 33 33 33 32 31 28 24 22 17 11 11 11 9 7 6 7 8 7 7 7 7 6 6 7 9 11 16 34 51 65 71 71
17 15 15 16 17 18 17 16 16 17 22 32 27 24 33 34 34 32 30 27 24 23 21 18 14 11 12 12 10 10 9 8 9 10 10 9 8 8 7 6 6 7 6 6 7 12 35 52 77
23 20 15 16 16 17 14 17 17 18 18 23 24 21 22 23 23 22 22 21 20 18 16 14 12 13 13 12 12 13 10 9 9 10 11 11 11 11 11 10 9 8 6 6 6 6 6 12 37
20 20 16 16 16 16 16 16 16 18 17 16 21 21 21 20 21 21 20 19 17 15 14 13 13 14 14 14 14 15 13 10 9 8 7 8 9 10 10 10 8 7 7 6 6 5 6 6 7
15 6 12 13 15 15 16 17 17 17 18 17 15 12 13 13 13 13 13 14 15 15 14 13 14 14 14 15 16 17 14 10 10 8 8 9 12 12 13 12 10 8 6 5 6 7 8 6 5
18 19 16 13 12 14 16 16 17 17 17 18 18 18 17 14 14 14 14 15 15 15 14 14 15 15 15 16 18 18 16 13 10 9 10 13 15 15 12 7 5 6 6 7 7 7 7 6 6
17 18 14 13 15 17 18 18 24 22 20 20 20 18 18 18 17 17 16 16 16 15 14 16 16 17 17 18 19 18 18 14 10 12 17 18 15 10 7 5 5 6 6 6 7 8 9 8 6
14 12 15 16 16 18 17 18 17 24 23 21 20 22 23 22 21 18 17 16 16 16 17 18 18 18 21 21 21 23 18 16 21 22 20 16 11 8 7 6 6 6 6 7 8 9 11 12 12
26 24 22 18 15 14 15 16 19 21 27 29 26 32 30 29 25 20 19 18 18 18 18 19 22 23 24 25 24 20 25 28 26 21 17 15 14 12 10 9 9 9 10 10 12 13 14 16 17
29 26 22 19 18 18 19 21 21 23 23 27 38 44 44 54 33 29 28 23 21 22 24 26 28 28 29 27 28 33 30 25 22 19 18 16 15 13 12 11 10 11 12 14 19 21 21 20 26
27 24 23 25 24 25 26 28 26 24 22 22 33 41 48 56 47 30 28 30 28 29 31 32 32 32 34 41 37 32 29 25 22 20 18 17 16 14 13 13 14 15 17 19 26 28 27 26 28
28 26 30 33 32 32 29 28 26 21 20 24 30 43 49 46 33 31 31 32 34 34 35 35 35 43 46 38 34 29 25 24 23 22 21 22 23 21 20 21 23 25 26 28 28 29 30 32 30
33 35 35 37 33 31 28 25 23 21 21 24 39 50 40 35 33 35 37 37 36 37 39 46 52 48 42 38 36 34 31 30 35 40 43 44 43 38 34 32 32 31 31 31 32 36 38 40 40
35 38 37 38 37 39 32 29 27 30 40 37 46 45 42 35 35 37 37 39 38 44 54 55 53 48 46 43 36 28 33 38 30 42 50 51 49 44 38 34 33 34 36 35 36 45 46 44 44
36 41 44 43 40 39 25 21 37 41 39 47 50 44 43 40 37 37 42 42 47 56 57 58 54 52 49 42 19 23 26 28 8 12 32 28 44 45 42 37 34 34 47 51 42 33 31 36 42
29 33 40 41 37 28 22 21 32 45 39 44 64 45 43 43 39 46 49 51 56 56 60 60 57 54 52 33 12 24 17 14 7 6 8 12 31 46 49 47 48 52 59 68 54 54 47 30 38
26 27 25 24 30 34 30 28 37 52 61 52 51 43 43 46 47 52 50 54 51 49 60 61 60 56 42 16 8 8 22 10 7 7 7 7 18 31 58 66 70 74 81 76 67 54 30 36 39
30 30 30 33 45 48 35 32 52 68 72 79 62 63 52 54 57 54 54 55 60 58 61 65 63 56 36 17 9 6 6 9 8 8 9 9 9 22 41 56 76 80 82 78 73 70 64 72 77
30 31 34 37 42 56 58 47 67 74 78 57 57 57 53 50 47 56 60 66 78 72 66 69 65 56 38 17 8 7 7 8 9 10 10 10 10 9 17 38 45 70 78 80 83 86 94 92 90
33 31 30 36 42 46 70 88 63 58 58 50 52 56 59 59 59 61 66 64 71 90 74 74 68 56 30 10 7 7 8 9 10 11 11 11 11 11 10 11 20 43 52 58 70 84 80 75 86

GFSSGP_700_rhum_159.txt.gz
RH
20 16 14 15 14 23 15 12 14 11 13 18 19 22 30 47 61 64 58 59 55 44 34 24 43 50 32 27 24 26 26 26 25 26 32 40 46 39 32 25 21 17 15 18 15 16 21 22 26
21 20 16 17 23 24 18 20 31 21 28 21 12 19 29 51 61 56 56 57 51 43 32 51 55 37 31 26 28 24 15 12 13 16 25 35 46 55 47 35 27 24 24 21 18 16 16 18 22
22 21 17 23 22 17 19 26 29 33 32 34 27 17 20 33 61 59 53 47 44 54 60 56 41 37 27 28 26 15 12 14 15 15 12 19 38 54 62 59 49 34 30 29 30 30 16 17 17
20 21 20 24 25 23 22 23 24 23 26 38 38 37 44 43 42 57 51 48 55 60 50 44 47 32 26 29 27 22 14 14 18 17 13 12 28 45 66 66 63 55 41 33 30 28 21 17 16
19 26 29 28 22 20 23 19 24 23 23 30 38 35 37 34 23 46 50 47 50 48 49 55 46 33 29 30 30 27 20 20 20 19 13 10 14 36 57 72 69 63 60 51 35 28 24 21 19
19 23 24 23 22 20 20 18 19 22 26 27 39 33 29 19 15 21 45 40 48 50 55 48 37 34 30 32 32 30 27 23 22 18 10 8 10 15 41 68 76 70 67 65 58 50 36 28 23
17 18 20 20 20 19 21 20 21 22 29 32 32 31 28 22 17 22 35 36 48 48 44 40 38 32 33 34 32 28 25 23 20 12 9 10 9 12 17 37 73 80 74 68 65 62 61 51 38
19 20 20 19 18 19 22 21 24 23 26 31 34 32 25 24 20 22 29 39 49 44 31 30 31 33 35 32 27 24 23 16 12 10 11 10 9 9 10 17 40 75 78 80 78 70 68 62 60
19 20 19 19 20 22 22 22 22 22 24 27 29 28 26 24 23 27 29 39 53 30 29 32 34 35 34 28 24 23 18 12 11 9 5 5 5 6 7 9 13 17 39 69 82 82 82 78 72
18 19 19 18 19 18 20 20 20 20 22 25 26 27 27 26 28 27 28 28 31 31 34 36 36 33 27 25 21 16 13 11 8 6 5 5 5 6 6 6 6 8 11 17 22 37 64 74 72
17 19 18 16 17 18 17 16 17 18 23 22 24 23 30 30 32 31 30 32 34 35 35 33 28 24 22 18 15 13 12 10 9 8 7 6 6 6 7 7 7 6 5 5 6 8 13 24 54
19 18 16 15 16 18 18 16 17 17 17 18 20 24 27 33 35 35 35 35 32 27 24 22 19 16 15 13 12 13 11 11 12 10 8 7 6 6 6 6 6 6 6 5 5 5 5 5 8
23 23 22 17 14 14 12 16 16 18 17 17 17 22 24 21 20 22 24 24 23 21 19 17 16 14 13 13 14 13 13 13 14 14 10 8 7 6 6 7 8 8 7 7 7 6 5 5 5
18 22 21 20 18 14 15 13 16 17 17 18 18 19 19 22 22 22 20 21 21 20 18 16 14 14 14 14 15 14 14 16 16 16 14 11 8 7 6 6 7 8 9 9 9 8 6 6 5
11 9 7 4 4 8 15 14 11 15 16 16 17 18 16 12 12 13 13 13 13 13 14 15 15 15 14 15 16 15 16 16 17 17 17 15 11 8 6 6 7 9 10 9 8 6 5 4 4
9 13 12 8 14 13 15 13 14 16 17 17 16 17 18 19 18 16 16 16 15 15 15 15 15 15 14 16 16 16 17 18 19 20 20 16 12 10 11 14 14 11 8 6 5 5 5 4 3
11 19 17 15 14 14 14 14 17 18 19 19 18 19 19 19 18 20 20 16 17 17 16 16 16 15 16 17 18 18 21 22 22 22 18 14 14 14 15 14 11 9 7 6 6 6 5 5 5
20 22 22 20 18 18 17 18 18 18 19 21 21 21 21 22 23 24 24 20 18 18 17 17 17 18 19 19 21 23 24 25 22 19 18 19 18 16 14 11 8 6 5 5 5 6 6 6 6
26 26 25 22 19 21 16 17 18 21 23 23 22 25 26 27 26 27 27 26 27 24 20 20 20 21 22 25 27 28 28 28 30 28 25 21 16 12 10 8 7 6 6 7 8 8 9 12 12
28 28 27 25 23 21 20 17 25 26 29 30 30 31 33 34 33 30 29 29 28 30 30 26 26 28 30 32 31 33 35 33 29 25 20 17 14 12 10 8 9 9 8 9 10 12 13 15 20
28 29 29 28 27 23 24 24 24 23 26 23 26 37 39 41 43 35 32 33 33 33 33 33 34 35 35 36 42 39 35 32 28 26 23 21 20 19 18 17 16 14 13 15 17 20 23 24 28
31 28 29 33 33 36 34 34 22 10 13 18 20 35 43 47 49 49 39 38 35 35 35 34 37 38 48 48 42 40 37 32 29 29 30 30 30 30 30 30 29 28 27 27 29 30 30 29 28
32 34 33 34 38 28 31 30 15 22 26 26 28 37 44 47 50 45 40 38 36 36 35 33 42 50 51 48 47 44 34 26 30 28 16 17 29 33 36 37 37 36 34 30 30 34 36 35 36
34 32 32 32 34 48 29 38 33 40 47 39 38 43 48 48 42 38 38 36 39 41 41 42 46 52 53 51 49 40 21 20 22 14 6 7 13 21 34 39 40 38 36 33 30 37 45 43 35
34 36 46 58 61 57 32 27 58 52 46 46 41 42 45 48 45 42 41 40 45 46 48 54 56 58 55 54 50 32 14 20 16 7 6 6 9 20 27 37 46 42 42 42 42 51 59 54 39
36 38 44 59 54 38 25 30 43 56 56 55 56 55 53 50 50 48 48 51 50 49 52 52 53 56 58 56 42 17 10 10 18 10 7 7 8 18 24 33 56 64 69 71 70 67 61 53 43
30 25 25 31 30 43 34 37 61 67 58 62 67 65 64 56 50 46 51 55 53 53 55 58 57 60 62 54 28 17 11 6 6 8 8 8 8 9 17 33 47 65 72 74 76 72 68 61 53
30 28 28 29 53 57 45 39 50 64 71 71 62 60 61 56 50 48 48 54 54 57 72 69 65 65 65 54 38 23 8 7 7 8 9 10 10 10 11 16 30 41 46 52 62 69 71 80 80
32 29 32 31 38 85 83 58 70 65 66 64 55 58 59 56 53 52 60 57 64 62 71 84 81 72 67 52 32 14 8 7 8 10 10 12 12 11 11 10 11 27 34 34 38 44 64 70 72
38 43 40 39 42 51 56 57 49 54 67 62 60 62 61 67 74 70 63 62 63 72 81 100 97 90 93 50 48 11 8 8 10 11 12 14 14 14 13 12 11 10 21 21 20 30 33 55 78